| time (UTC) | temp F | wind direction | speed MPH | gust MPH | rain 1hr in | rain 24hr in | rain mn in | humidity % | barometer mb |
| 20260906181503 | 86 | 316 | 2.0 | 6.0 | 0.00 | 0.02 | 0.02 | 76 | 1007.9 |
| 20260906181403 | 86 | 314 | 3.0 | 6.0 | 0.00 | 0.02 | 0.02 | 76 | 1007.9 |
| 20260906181304 | 86 | 357 | 3.0 | 6.0 | 0.00 | 0.02 | 0.02 | 76 | 1008.0 |
| 20260906181203 | 86 | 8 | 3.0 | 6.0 | 0.00 | 0.02 | 0.02 | 76 | 1008.0 |
| 20260906181103 | 86 | 37 | 5.0 | 6.0 | 0.00 | 0.02 | 0.02 | 76 | 1008.0 |
| 20260906181004 | 86 | 351 | 5.0 | 6.0 | 0.00 | 0.02 | 0.02 | 76 | 1007.9 |
| 20260906180904 | 86 | 348 | 4.0 | 5.0 | 0.00 | 0.02 | 0.02 | 76 | 1007.9 |
| 20260906180804 | 86 | 0 | 3.0 | 5.0 | 0.00 | 0.02 | 0.02 | 77 | 1007.9 |
| 20260906180703 | 86 | 348 | 3.0 | 5.0 | 0.00 | 0.02 | 0.02 | 77 | 1007.9 |
| 20260906180602 | 86 | 0 | 3.0 | 6.0 | 0.00 | 0.02 | 0.02 | 77 | 1007.9 |
| 20260906180504 | 86 | 7 | 3.0 | 7.0 | 0.00 | 0.02 | 0.02 | 76 | 1007.9 |
| 20260906180405 | 86 | 0 | 2.0 | 7.0 | 0.00 | 0.02 | 0.02 | 77 | 1007.9 |
| 20260906180305 | 86 | 0 | 2.0 | 9.0 | 0.00 | 0.02 | 0.02 | 77 | 1007.9 |
| 20260906180204 | 86 | 0 | 3.0 | 9.0 | 0.00 | 0.02 | 0.02 | 77 | 1007.8 |
| 20260906180104 | 86 | 0 | 4.0 | 9.0 | 0.00 | 0.02 | 0.02 | 77 | 1007.8 |
| 20260906180003 | 86 | 0 | 3.0 | 9.0 | 0.00 | 0.02 | 0.02 | 77 | 1007.8 |
| 20260906175903 | 86 | 354 | 3.0 | 9.0 | 0.00 | 0.02 | 0.02 | 77 | 1007.8 |
| 20260906175804 | 86 | 3 | 4.0 | 10.0 | 0.00 | 0.02 | 0.02 | 77 | 1007.8 |
| 20260906175702 | 86 | 353 | 5.0 | 10.0 | 0.00 | 0.02 | 0.02 | 77 | 1007.8 |
| 20260906175603 | 86 | 354 | 6.0 | 10.0 | 0.00 | 0.02 | 0.02 | 77 | 1007.8 |
| 20260906175504 | 86 | 354 | 5.0 | 10.0 | 0.00 | 0.02 | 0.02 | 77 | 1007.8 |
| 20260906175403 | 86 | 1 | 5.0 | 10.0 | 0.00 | 0.02 | 0.02 | 76 | 1007.8 |
| 20260906175306 | 86 | 31 | 5.0 | 10.0 | 0.00 | 0.02 | 0.02 | 76 | 1007.7 |
| 20260906175203 | 86 | 350 | 6.0 | 10.0 | 0.00 | 0.02 | 0.02 | 76 | 1007.8 |
| 20260906175103 | 87 | 333 | 6.0 | 10.0 | 0.00 | 0.02 | 0.02 | 77 | 1007.8 |
| 20260906175004 | 87 | 345 | 6.0 | 10.0 | 0.00 | 0.02 | 0.02 | 77 | 1007.7 |
| 20260906174903 | 87 | 334 | 6.0 | 10.0 | 0.00 | 0.02 | 0.02 | 77 | 1007.8 |
| 20260906174802 | 87 | 337 | 5.0 | 7.0 | 0.00 | 0.02 | 0.02 | 76 | 1007.7 |
| 20260906174702 | 87 | 357 | 4.0 | 9.0 | 0.00 | 0.02 | 0.02 | 77 | 1007.8 |
| 20260906174604 | 86 | 321 | 4.0 | 9.0 | 0.00 | 0.02 | 0.02 | 77 | 1007.8 |
| 20260906174503 | 86 | 331 | 4.0 | 9.0 | 0.00 | 0.02 | 0.02 | 77 | 1007.8 |
| 20260906174403 | 86 | 324 | 4.0 | 9.0 | 0.00 | 0.02 | 0.02 | 76 | 1007.9 |
| 20260906174302 | 86 | 327 | 5.0 | 9.0 | 0.00 | 0.02 | 0.02 | 77 | 1007.9 |
| 20260906174204 | 86 | 348 | 5.0 | 9.0 | 0.00 | 0.02 | 0.02 | 77 | 1007.9 |
| 20260906174104 | 86 | 338 | 5.0 | 9.0 | 0.00 | 0.02 | 0.02 | 77 | 1007.9 |
| 20260906174005 | 86 | 326 | 5.0 | 9.0 | 0.00 | 0.02 | 0.02 | 77 | 1007.9 |
| 20260906173903 | 86 | 331 | 5.0 | 9.0 | 0.00 | 0.02 | 0.02 | 78 | 1007.9 |
| 20260906173803 | 86 | 347 | 6.0 | 9.0 | 0.00 | 0.02 | 0.02 | 79 | 1008.0 |
| 20260906173703 | 86 | 351 | 4.0 | 7.0 | 0.00 | 0.02 | 0.02 | 79 | 1007.9 |
| 20260906173603 | 86 | 329 | 5.0 | 7.0 | 0.00 | 0.02 | 0.02 | 79 | 1007.9 |
| 20260906173503 | 86 | 343 | 5.0 | 7.0 | 0.00 | 0.02 | 0.02 | 80 | 1008.0 |
| 20260906173403 | 86 | 350 | 4.0 | 6.0 | 0.00 | 0.02 | 0.02 | 80 | 1008.0 |
| 20260906173303 | 86 | 340 | 4.0 | 5.0 | 0.00 | 0.02 | 0.02 | 79 | 1008.0 |
| 20260906173203 | 86 | 334 | 4.0 | 5.0 | 0.00 | 0.02 | 0.02 | 78 | 1008.0 |
| 20260906173102 | 86 | 333 | 3.0 | 5.0 | 0.00 | 0.02 | 0.02 | 78 | 1007.9 |
| 20260906173004 | 86 | 7 | 3.0 | 4.0 | 0.00 | 0.02 | 0.02 | 77 | 1008.0 |
| 20260906172903 | 86 | 8 | 3.0 | 4.0 | 0.00 | 0.02 | 0.02 | 78 | 1008.0 |
| 20260906172803 | 86 | 7 | 2.0 | 4.0 | 0.00 | 0.02 | 0.02 | 79 | 1008.0 |
| 20260906172703 | 86 | 7 | 2.0 | 4.0 | 0.00 | 0.02 | 0.02 | 79 | 1008.1 |
| 20260906172603 | 86 | 10 | 2.0 | 4.0 | 0.00 | 0.02 | 0.02 | 79 | 1008.1 |
| 20260906172504 | 86 | 13 | 3.0 | 4.0 | 0.00 | 0.02 | 0.02 | 80 | 1008.0 |
| 20260906172402 | 86 | 13 | 3.0 | 4.0 | 0.00 | 0.02 | 0.02 | 80 | 1008.1 |
| 20260906172306 | 85 | 0 | 2.0 | 4.0 | 0.00 | 0.02 | 0.02 | 80 | 1008.0 |
| 20260906172205 | 85 | 56 | 2.0 | 4.0 | 0.00 | 0.02 | 0.02 | 80 | 1008.0 |
| 20260906172103 | 85 | 56 | 2.0 | 4.0 | 0.00 | 0.02 | 0.02 | 80 | 1008.1 |
| 20260906172003 | 85 | 58 | 2.0 | 4.0 | 0.00 | 0.02 | 0.02 | 80 | 1008.1 |
| 20260906171904 | 85 | 58 | 1.0 | 5.0 | 0.00 | 0.02 | 0.02 | 81 | 1008.1 |
| 20260906171803 | 85 | 56 | 1.0 | 5.0 | 0.00 | 0.02 | 0.02 | 81 | 1008.2 |
| 20260906171703 | 85 | 56 | 2.0 | 5.0 | 0.00 | 0.02 | 0.02 | 80 | 1008.3 |
| 20260906171603 | 85 | 54 | 2.0 | 5.0 | 0.00 | 0.02 | 0.02 | 82 | 1008.2 |
| 20260906171504 | 85 | 56 | 1.0 | 5.0 | 0.00 | 0.02 | 0.02 | 83 | 1008.3 |
| 20260906171403 | 85 | 75 | 0.0 | 5.0 | 0.00 | 0.02 | 0.02 | 82 | 1008.3 |
| 20260906171303 | 85 | 76 | 2.0 | 5.0 | 0.00 | 0.02 | 0.02 | 82 | 1008.3 |
| 20260906171203 | 84 | 86 | 2.0 | 5.0 | 0.00 | 0.02 | 0.02 | 82 | 1008.3 |
| 20260906171103 | 84 | 52 | 3.0 | 5.0 | 0.00 | 0.02 | 0.02 | 82 | 1008.2 |
| 20260906171004 | 84 | 49 | 2.0 | 5.0 | 0.00 | 0.02 | 0.02 | 82 | 1008.3 |
| 20260906170902 | 84 | 89 | 1.0 | 4.0 | 0.00 | 0.02 | 0.02 | 82 | 1008.3 |
| 20260906170803 | 84 | 90 | 2.0 | 4.0 | 0.00 | 0.02 | 0.02 | 83 | 1008.3 |
| 20260906170702 | 83 | 92 | 2.0 | 4.0 | 0.00 | 0.02 | 0.02 | 83 | 1008.3 |
| 20260906170603 | 83 | 93 | 2.0 | 4.0 | 0.00 | 0.02 | 0.02 | 83 | 1008.4 |
| 20260906170502 | 83 | 82 | 2.0 | 5.0 | 0.00 | 0.02 | 0.02 | 83 | 1008.4 |
| 20260906170403 | 83 | 75 | 1.0 | 5.0 | 0.00 | 0.02 | 0.02 | 85 | 1008.4 |
| 20260906170303 | 83 | 78 | 1.0 | 5.0 | 0.00 | 0.02 | 0.02 | 85 | 1008.4 |
| 20260906170203 | 83 | 78 | 2.0 | 5.0 | 0.00 | 0.02 | 0.02 | 85 | 1008.5 |
| 20260906170103 | 82 | 75 | 2.0 | 5.0 | 0.00 | 0.02 | 0.02 | 86 | 1008.4 |
| 20260906170002 | 82 | 73 | 2.0 | 5.0 | 0.00 | 0.02 | 0.02 | 86 | 1008.5 |
| 20260906165903 | 82 | 59 | 3.0 | 5.0 | 0.00 | 0.02 | 0.02 | 86 | 1008.4 |
| 20260906165804 | 82 | 61 | 2.0 | 5.0 | 0.00 | 0.02 | 0.02 | 86 | 1008.4 |
| 20260906165703 | 82 | 55 | 2.0 | 5.0 | 0.00 | 0.02 | 0.02 | 87 | 1008.4 |
| 20260906165604 | 82 | 55 | 1.0 | 5.0 | 0.00 | 0.02 | 0.02 | 87 | 1008.4 |
| 20260906165504 | 82 | 17 | 1.0 | 5.0 | 0.00 | 0.02 | 0.02 | 87 | 1008.5 |
| 20260906165404 | 81 | 85 | 1.0 | 5.0 | 0.00 | 0.02 | 0.02 | 87 | 1008.4 |
| 20260906165302 | 81 | 83 | 1.0 | 5.0 | 0.00 | 0.02 | 0.02 | 87 | 1008.4 |
| 20260906165203 | 81 | 83 | 1.0 | 5.0 | 0.00 | 0.02 | 0.02 | 86 | 1008.4 |
| 20260906165102 | 81 | 83 | 2.0 | 6.0 | 0.00 | 0.02 | 0.02 | 86 | 1008.4 |
| 20260906165002 | 81 | 87 | 2.0 | 6.0 | 0.00 | 0.02 | 0.02 | 86 | 1008.4 |
| 20260906164903 | 81 | 87 | 2.0 | 6.0 | 0.00 | 0.02 | 0.02 | 86 | 1008.3 |
| 20260906164802 | 81 | 92 | 3.0 | 7.0 | 0.00 | 0.02 | 0.02 | 86 | 1008.4 |
| 20260906164703 | 81 | 92 | 4.0 | 7.0 | 0.00 | 0.02 | 0.02 | 86 | 1008.4 |
| 20260906164604 | 81 | 89 | 4.0 | 7.0 | 0.00 | 0.02 | 0.02 | 86 | 1008.4 |
| 20260906164504 | 81 | 104 | 4.0 | 7.0 | 0.00 | 0.02 | 0.02 | 85 | 1008.4 |
| 20260906164402 | 81 | 86 | 4.0 | 7.0 | 0.00 | 0.02 | 0.02 | 85 | 1008.4 |
| 20260906164304 | 81 | 92 | 4.0 | 7.0 | 0.00 | 0.02 | 0.02 | 85 | 1008.5 |
| 20260906164203 | 81 | 86 | 4.0 | 7.0 | 0.00 | 0.02 | 0.02 | 85 | 1008.5 |
| 20260906164104 | 81 | 92 | 4.0 | 7.0 | 0.00 | 0.02 | 0.02 | 85 | 1008.4 |
| 20260906164003 | 81 | 90 | 4.0 | 7.0 | 0.00 | 0.02 | 0.02 | 85 | 1008.5 |
| 20260906163903 | 81 | 103 | 5.0 | 7.0 | 0.01 | 0.02 | 0.02 | 85 | 1008.5 |
| 20260906163803 | 81 | 109 | 4.0 | 7.0 | 0.01 | 0.02 | 0.02 | 85 | 1008.4 |
| 20260906163704 | 81 | 76 | 4.0 | 7.0 | 0.01 | 0.02 | 0.02 | 85 | 1008.4 |
| 20260906163602 | 82 | 94 | 4.0 | 7.0 | 0.01 | 0.02 | 0.02 | 85 | 1008.4 |
| 20260906163504 | 82 | 100 | 4.0 | 7.0 | 0.01 | 0.02 | 0.02 | 84 | 1008.4 |
| 20260906163403 | 82 | 86 | 4.0 | 7.0 | 0.01 | 0.02 | 0.02 | 84 | 1008.4 |
| 20260906163303 | 82 | 85 | 4.0 | 7.0 | 0.01 | 0.02 | 0.02 | 84 | 1008.4 |
| 20260906163202 | 82 | 86 | 5.0 | 7.0 | 0.01 | 0.02 | 0.02 | 84 | 1008.3 |
| 20260906163103 | 82 | 86 | 5.0 | 7.0 | 0.01 | 0.02 | 0.02 | 84 | 1008.4 |
| 20260906163005 | 82 | 97 | 4.0 | 6.0 | 0.01 | 0.02 | 0.02 | 84 | 1008.3 |
| 20260906162904 | 82 | 92 | 4.0 | 6.0 | 0.02 | 0.02 | 0.02 | 84 | 1008.4 |
| 20260906162807 | 82 | 93 | 3.0 | 6.0 | 0.02 | 0.02 | 0.02 | 84 | 1008.4 |
| 20260906162702 | 82 | 90 | 2.0 | 5.0 | 0.02 | 0.02 | 0.02 | 84 | 1008.3 |
| 20260906162604 | 82 | 86 | 2.0 | 5.0 | 0.02 | 0.02 | 0.02 | 84 | 1008.4 |
| 20260906162504 | 81 | 87 | 2.0 | 5.0 | 0.02 | 0.02 | 0.02 | 84 | 1008.3 |
| 20260906162405 | 81 | 83 | 3.0 | 5.0 | 0.02 | 0.02 | 0.02 | 84 | 1008.5 |
| 20260906162306 | 82 | 85 | 4.0 | 5.0 | 0.02 | 0.02 | 0.02 | 86 | 1008.5 |
| 20260906162202 | 82 | 87 | 3.0 | 5.0 | 0.02 | 0.02 | 0.02 | 86 | 1008.4 |
| 20260906162103 | 82 | 93 | 3.0 | 4.0 | 0.02 | 0.02 | 0.02 | 85 | 1008.4 |
| 20260906162004 | 82 | 96 | 3.0 | 4.0 | 0.02 | 0.02 | 0.02 | 85 | 1008.4 |
| 20260906161904 | 82 | 99 | 2.0 | 4.0 | 0.02 | 0.02 | 0.02 | 86 | 1008.4 |
| 20260906161802 | 82 | 102 | 2.0 | 4.0 | 0.02 | 0.02 | 0.02 | 86 | 1008.5 |
| 20260906161703 | 82 | 103 | 2.0 | 4.0 | 0.02 | 0.02 | 0.02 | 86 | 1008.4 |
| 20260906161602 | 82 | 104 | 2.0 | 4.0 | 0.02 | 0.02 | 0.02 | 86 | 1008.4 |
| 20260906161506 | 82 | 104 | 3.0 | 5.0 | 0.02 | 0.02 | 0.02 | 86 | 1008.4 |
| 20260906161403 | 82 | 111 | 2.0 | 5.0 | 0.02 | 0.02 | 0.02 | 86 | 1008.4 |
| 20260906161304 | 81 | 114 | 2.0 | 5.0 | 0.02 | 0.02 | 0.02 | 85 | 1008.4 |
| 20260906161203 | 82 | 120 | 2.0 | 5.0 | 0.02 | 0.02 | 0.02 | 85 | 1008.5 |
| 20260906161103 | 82 | 128 | 2.0 | 5.0 | 0.02 | 0.02 | 0.02 | 85 | 1008.5 |
| 20260906161005 | 82 | 116 | 1.0 | 5.0 | 0.02 | 0.02 | 0.02 | 86 | 1008.5 |
| 20260906160901 | 82 | 130 | 2.0 | 5.0 | 0.02 | 0.02 | 0.02 | 86 | 1008.5 |
| 20260906160802 | 81 | 109 | 3.0 | 5.0 | 0.02 | 0.02 | 0.02 | 86 | 1008.6 |
| 20260906160703 | 81 | 113 | 3.0 | 5.0 | 0.02 | 0.02 | 0.02 | 85 | 1008.6 |
| 20260906160602 | 81 | 103 | 3.0 | 5.0 | 0.02 | 0.02 | 0.02 | 85 | 1008.5 |
| 20260906160503 | 81 | 63 | 2.0 | 3.0 | 0.02 | 0.02 | 0.02 | 85 | 1008.5 |
| 20260906160403 | 81 | 59 | 0.0 | 2.0 | 0.02 | 0.02 | 0.02 | 84 | 1008.5 |
| 20260906160303 | 82 | 52 | 0.0 | 2.0 | 0.02 | 0.02 | 0.02 | 84 | 1008.5 |
| 20260906160204 | 81 | 52 | 0.0 | 2.0 | 0.02 | 0.02 | 0.02 | 84 | 1008.4 |
| 20260906160104 | 81 | 52 | 0.0 | 3.0 | 0.02 | 0.02 | 0.02 | 84 | 1008.4 |
| 20260906160005 | 81 | 52 | 0.0 | 3.0 | 0.02 | 0.02 | 0.00 | 84 | 1008.4 |
| 20260906155903 | 81 | 52 | 0.0 | 3.0 | 0.02 | 0.02 | 0.02 | 85 | 1008.4 |
| 20260906155803 | 81 | 52 | 0.0 | 3.0 | 0.02 | 0.02 | 0.02 | 85 | 1008.3 |
| 20260906155702 | 81 | 52 | 0.0 | 3.0 | 0.02 | 0.02 | 0.02 | 84 | 1008.3 |
| 20260906155605 | 81 | 52 | 0.0 | 3.0 | 0.02 | 0.02 | 0.02 | 84 | 1008.3 |
| 20260906155504 | 81 | 52 | 1.0 | 3.0 | 0.02 | 0.02 | 0.02 | 85 | 1008.3 |
| 20260906155403 | 80 | 52 | 0.0 | 3.0 | 0.02 | 0.02 | 0.02 | 85 | 1008.3 |
| 20260906155306 | 80 | 52 | 1.0 | 4.0 | 0.02 | 0.02 | 0.02 | 85 | 1008.4 |
| 20260906155202 | 80 | 52 | 2.0 | 4.0 | 0.02 | 0.02 | 0.02 | 85 | 1008.4 |
| 20260906155104 | 80 | 52 | 2.0 | 4.0 | 0.02 | 0.02 | 0.02 | 85 | 1008.4 |
| 20260906155004 | 80 | 54 | 2.0 | 4.0 | 0.02 | 0.02 | 0.02 | 85 | 1008.4 |
| 20260906154903 | 80 | 54 | 2.0 | 4.0 | 0.02 | 0.02 | 0.02 | 86 | 1008.4 |
| 20260906154802 | 80 | 49 | 1.0 | 5.0 | 0.02 | 0.02 | 0.02 | 86 | 1008.4 |
| 20260906154702 | 80 | 49 | 1.0 | 5.0 | 0.02 | 0.02 | 0.02 | 86 | 1008.4 |
| 20260906154603 | 80 | 49 | 2.0 | 5.0 | 0.02 | 0.02 | 0.02 | 85 | 1008.4 |
| 20260906154502 | 79 | 47 | 2.0 | 5.0 | 0.02 | 0.02 | 0.02 | 85 | 1008.4 |
| 20260906154404 | 79 | 47 | 3.0 | 6.0 | 0.02 | 0.02 | 0.02 | 85 | 1008.4 |
| 20260906154305 | 80 | 32 | 3.0 | 6.0 | 0.02 | 0.02 | 0.02 | 85 | 1008.4 |
| 20260906154202 | 80 | 10 | 3.0 | 6.0 | 0.02 | 0.02 | 0.02 | 85 | 1008.4 |
| 20260906154102 | 80 | 1 | 2.0 | 6.0 | 0.02 | 0.02 | 0.02 | 85 | 1008.3 |
| 20260906154002 | 80 | 48 | 3.0 | 7.0 | 0.02 | 0.01 | 0.01 | 84 | 1008.3 |
| 20260906153903 | 80 | 49 | 4.0 | 7.0 | 0.01 | 0.01 | 0.01 | 84 | 1008.3 |
| 20260906153802 | 80 | 48 | 3.0 | 7.0 | 0.01 | 0.01 | 0.01 | 84 | 1008.4 |
| 20260906153703 | 80 | 35 | 3.0 | 7.0 | 0.01 | 0.01 | 0.01 | 83 | 1008.4 |
| 20260906153603 | 80 | 54 | 4.0 | 7.0 | 0.01 | 0.01 | 0.01 | 82 | 1008.4 |
| 20260906153502 | 80 | 73 | 3.0 | 7.0 | 0.01 | 0.01 | 0.01 | 82 | 1008.4 |
| 20260906153404 | 81 | 45 | 2.0 | 7.0 | 0.01 | 0.01 | 0.01 | 82 | 1008.4 |
| 20260906153302 | 81 | 73 | 3.0 | 7.0 | 0.01 | 0.01 | 0.01 | 81 | 1008.4 |
| 20260906153202 | 82 | 79 | 5.0 | 7.0 | 0.01 | 0.01 | 0.01 | 81 | 1008.4 |
| 20260906153104 | 82 | 54 | 6.0 | 7.0 | 0.01 | 0.01 | 0.01 | 80 | 1008.4 |
| 20260906153004 | 82 | 42 | 6.0 | 7.0 | 0.01 | 0.00 | 0.00 | 78 | 1008.5 |
| 20260906152903 | 82 | 34 | 6.0 | 7.0 | 0.00 | 0.00 | 0.00 | 76 | 1008.5 |
| 20260906152802 | 83 | 34 | 5.0 | 7.0 | 0.00 | 0.00 | 0.00 | 76 | 1008.4 |
| 20260906152702 | 83 | 32 | 4.0 | 7.0 | 0.00 | 0.00 | 0.00 | 77 | 1008.5 |
| 20260906152603 | 83 | 31 | 3.0 | 7.0 | 0.00 | 0.00 | 0.00 | 78 | 1008.5 |
| 20260906152504 | 83 | 17 | 3.0 | 7.0 | 0.00 | 0.00 | 0.00 | 78 | 1008.5 |
| 20260906152403 | 84 | 97 | 3.0 | 7.0 | 0.00 | 0.00 | 0.00 | 80 | 1008.4 |
| 20260906152306 | 84 | 269 | 4.0 | 7.0 | 0.00 | 0.00 | 0.00 | 80 | 1008.5 |
| 20260906152203 | 85 | 269 | 5.0 | 7.0 | 0.00 | 0.00 | 0.00 | 82 | 1008.5 |
| 20260906152101 | 86 | 251 | 5.0 | 6.0 | 0.00 | 0.00 | 0.00 | 81 | 1008.3 |
| 20260906152004 | 86 | 252 | 5.0 | 6.0 | 0.00 | 0.00 | 0.00 | 81 | 1008.3 |
| 20260906151904 | 86 | 257 | 4.0 | 6.0 | 0.00 | 0.00 | 0.00 | 79 | 1008.2 |
| 20260906151803 | 86 | 265 | 4.0 | 6.0 | 0.00 | 0.00 | 0.00 | 79 | 1008.2 |
| 20260906151704 | 86 | 266 | 4.0 | 6.0 | 0.00 | 0.00 | 0.00 | 79 | 1008.1 |
| 20260906151603 | 86 | 283 | 4.0 | 6.0 | 0.00 | 0.00 | 0.00 | 79 | 1008.1 |
| 20260906151504 | 86 | 281 | 4.0 | 6.0 | 0.00 | 0.00 | 0.00 | 79 | 1008.2 |
| 20260906151403 | 86 | 288 | 4.0 | 6.0 | 0.00 | 0.00 | 0.00 | 78 | 1008.1 |
| 20260906151304 | 86 | 299 | 4.0 | 6.0 | 0.00 | 0.00 | 0.00 | 78 | 1008.0 |
| 20260906151204 | 86 | 286 | 3.0 | 5.0 | 0.00 | 0.00 | 0.00 | 78 | 1008.1 |
| 20260906151104 | 86 | 87 | 1.0 | 2.0 | 0.00 | 0.00 | 0.00 | 78 | 1008.0 |
| 20260906151003 | 86 | 92 | 0.0 | 2.0 | 0.00 | 0.00 | 0.00 | 78 | 1008.1 |
| 20260906150903 | 86 | 92 | 1.0 | 2.0 | 0.00 | 0.00 | 0.00 | 78 | 1008.1 |
| 20260906150802 | 86 | 92 | 1.0 | 2.0 | 0.00 | 0.00 | 0.00 | 78 | 1008.1 |
| 20260906150703 | 86 | 92 | 1.0 | 2.0 | 0.00 | 0.00 | 0.00 | 78 | 1008.1 |
| 20260906150603 | 86 | 92 | 0.0 | 2.0 | 0.00 | 0.00 | 0.00 | 77 | 1008.1 |
| 20260906150503 | 86 | 92 | 0.0 | 3.0 | 0.00 | 0.00 | 0.00 | 77 | 1008.1 |
| 20260906150402 | 87 | 92 | 0.0 | 3.0 | 0.00 | 0.00 | 0.00 | 77 | 1008.1 |
| 20260906150303 | 87 | 92 | 0.0 | 3.0 | 0.00 | 0.00 | 0.00 | 78 | 1008.1 |
| 20260906150205 | 87 | 94 | 0.0 | 3.0 | 0.00 | 0.00 | 0.00 | 78 | 1008.1 |
| 20260906150003 | 87 | 94 | 0.0 | 5.0 | 0.00 | 0.00 | 0.00 | 78 | 1008.0 |
| 20260906145902 | 87 | 94 | 0.0 | 5.0 | 0.00 | 0.00 | 0.00 | 78 | 1008.1 |
| 20260906145803 | 87 | 94 | 1.0 | 5.0 | 0.00 | 0.00 | 0.00 | 78 | 1008.1 |
| 20260906145653 | 86 | 94 | 2.0 | 5.0 | 0.00 | 0.00 | 0.00 | 78 | 1008.1 |
| 20260906145553 | 86 | 93 | 2.0 | 5.0 | 0.00 | 0.00 | 0.00 | 80 | 1008.1 |
| 20260906145453 | 86 | 87 | 2.0 | 5.0 | 0.00 | 0.00 | 0.00 | 80 | 1008.1 |
| 20260906145352 | 86 | 82 | 2.0 | 5.0 | 0.00 | 0.00 | 0.00 | 80 | 1008.2 |
| 20260906145251 | 86 | 82 | 2.0 | 5.0 | 0.00 | 0.00 | 0.00 | 79 | 1008.2 |
| 20260906145152 | 86 | 82 | 3.0 | 5.0 | 0.00 | 0.00 | 0.00 | 80 | 1008.1 |
| 20260906145053 | 86 | 83 | 2.0 | 5.0 | 0.00 | 0.00 | 0.00 | 80 | 1008.1 |
| 20260906144951 | 86 | 86 | 0.0 | 0.0 | 0.00 | 0.00 | 0.00 | 80 | 1008.2 |
| 20260906144852 | 86 | 86 | 0.0 | 0.0 | 0.00 | 0.00 | 0.00 | 80 | 1008.1 |
| 20260906144753 | 86 | 86 | 0.0 | 0.0 | 0.00 | 0.00 | 0.00 | 80 | 1008.1 |
| 20260906144652 | 86 | 86 | 0.0 | 0.0 | 0.00 | 0.00 | 0.00 | 80 | 1008.2 |
| 20260906144553 | 86 | 89 | 0.0 | 0.0 | 0.00 | 0.00 | 0.00 | 79 | 1008.1 |
| 20260906144452 | 86 | 89 | 0.0 | 0.0 | 0.00 | 0.00 | 0.00 | 79 | 1008.1 |
| 20260906144347 | 86 | 78 | 0.0 | 0.0 | 0.00 | 0.00 | 0.00 | 79 | 1008.1 |
| 20260906144246 | 86 | 72 | 0.0 | 0.0 | 0.00 | 0.00 | 0.00 | 82 | 1008.1 |
| 20260906144132 | 86 | 65 | 0.0 | 0.0 | 0.00 | 0.00 | 0.00 | 82 | 1008.2 |
| 20260906144031 | 86 | 13 | 0.0 | 0.0 | 0.00 | 0.00 | 0.00 | 82 | 1008.1 |
| 20260906143931 | 85 | 13 | 0.0 | 0.0 | 0.00 | 0.00 | 0.00 | 82 | 1008.1 |
| 20260906143833 | 85 | 13 | 0.0 | 0.0 | 0.00 | 0.00 | 0.00 | 82 | 1008.2 |
| 20260906143733 | 85 | 13 | 0.0 | 1.0 | 0.00 | 0.00 | 0.00 | 83 | 1008.1 |
| 20260906143631 | 85 | 0 | 0.0 | 2.0 | 0.00 | 0.00 | 0.00 | 83 | 1008.2 |
| 20260906143533 | 85 | 0 | 0.0 | 3.0 | 0.00 | 0.00 | 0.00 | 83 | 1008.1 |
| 20260906143430 | 84 | 0 | 0.0 | 3.0 | 0.00 | 0.00 | 0.00 | 83 | 1008.2 |
| 20260906143332 | 84 | 0 | 0.0 | 3.0 | 0.00 | 0.00 | 0.00 | 83 | 1008.2 |
| 20260906143230 | 84 | 0 | 0.0 | 3.0 | 0.00 | 0.00 | 0.00 | 83 | 1008.1 |
| 20260906143129 | 84 | 0 | 0.0 | 3.0 | 0.00 | 0.00 | 0.00 | 83 | 1008.2 |
| 20260906143020 | 84 | 0 | 0.0 | 3.0 | 0.00 | 0.00 | 0.00 | 83 | 1008.2 |
| 20260906142913 | 84 | 0 | 1.0 | 3.0 | 0.00 | 0.00 | 0.00 | 83 | 1008.1 |
| 20260906142804 | 84 | 0 | 1.0 | 3.0 | 0.00 | 0.00 | 0.00 | 83 | 1008.1 |
| 20260906142704 | 84 | 0 | 2.0 | 3.0 | 0.00 | 0.00 | 0.00 | 83 | 1008.0 |
| 20260906142604 | 84 | 296 | 1.0 | 2.0 | 0.00 | 0.00 | 0.00 | 83 | 1008.1 |
| 20260906142503 | 84 | 296 | 1.0 | 2.0 | 0.00 | 0.00 | 0.00 | 83 | 1008.1 |
| 20260906142404 | 84 | 296 | 1.0 | 2.0 | 0.00 | 0.00 | 0.00 | 83 | 1008.2 |
| 20260906142306 | 84 | 296 | 1.0 | 2.0 | 0.00 | 0.00 | 0.00 | 83 | 1008.1 |
| 20260906142203 | 84 | 283 | 0.0 | 2.0 | 0.00 | 0.00 | 0.00 | 83 | 1008.1 |
| 20260906142103 | 84 | 168 | 0.0 | 1.0 | 0.00 | 0.00 | 0.00 | 83 | 1008.2 |
| 20260906142005 | 84 | 168 | 0.0 | 1.0 | 0.00 | 0.00 | 0.00 | 83 | 1008.2 |
| 20260906141904 | 84 | 168 | 0.0 | 2.0 | 0.00 | 0.00 | 0.00 | 83 | 1008.2 |
| 20260906141803 | 84 | 168 | 0.0 | 2.0 | 0.00 | 0.00 | 0.00 | 83 | 1008.2 |
| 20260906141704 | 84 | 168 | 0.0 | 2.0 | 0.00 | 0.00 | 0.00 | 83 | 1008.2 |
| 20260906141604 | 84 | 168 | 0.0 | 2.0 | 0.00 | 0.00 | 0.00 | 83 | 1008.2 |
| 20260906141505 | 84 | 168 | 0.0 | 2.0 | 0.00 | 0.00 | 0.00 | 83 | 1008.2 |
| 20260906141404 | 84 | 168 | 0.0 | 2.0 | 0.00 | 0.00 | 0.00 | 83 | 1008.2 |
| 20260906141302 | 84 | 168 | 0.0 | 2.0 | 0.00 | 0.00 | 0.00 | 83 | 1008.1 |
| 20260906141202 | 84 | 168 | 1.0 | 2.0 | 0.00 | 0.00 | 0.00 | 83 | 1008.1 |
| 20260906141103 | 84 | 168 | 1.0 | 2.0 | 0.00 | 0.00 | 0.00 | 83 | 1008.1 |
| 20260906141003 | 84 | 168 | 2.0 | 2.0 | 0.00 | 0.00 | 0.00 | 83 | 1008.1 |
| 20260906140903 | 85 | 165 | 1.0 | 2.0 | 0.00 | 0.00 | 0.00 | 83 | 1008.1 |
| 20260906140802 | 85 | 158 | 0.0 | 2.0 | 0.00 | 0.00 | 0.00 | 83 | 1008.1 |
| 20260906140703 | 85 | 121 | 0.0 | 0.0 | 0.00 | 0.00 | 0.00 | 82 | 1008.1 |
| 20260906140603 | 85 | 124 | 0.0 | 0.0 | 0.00 | 0.00 | 0.00 | 82 | 1008.1 |
| 20260906140504 | 85 | 123 | 0.0 | 0.0 | 0.00 | 0.00 | 0.00 | 82 | 1008.1 |
| 20260906140402 | 85 | 120 | 0.0 | 0.0 | 0.00 | 0.00 | 0.00 | 82 | 1008.2 |
| 20260906140305 | 84 | 114 | 0.0 | 0.0 | 0.00 | 0.00 | 0.00 | 84 | 1008.0 |
| 20260906140204 | 84 | 114 | 0.0 | 0.0 | 0.00 | 0.00 | 0.00 | 84 | 1008.1 |
| 20260906140052 | 84 | 114 | 0.0 | 0.0 | 0.00 | 0.00 | 0.00 | 84 | 1008.1 |
| 20260906135950 | 84 | 114 | 0.0 | 0.0 | 0.00 | 0.00 | 0.00 | 84 | 1008.2 |
| 20260906135850 | 84 | 114 | 0.0 | 0.0 | 0.00 | 0.00 | 0.00 | 84 | 1008.2 |
| 20260906135750 | 84 | 114 | 0.0 | 0.0 | 0.00 | 0.00 | 0.00 | 84 | 1008.2 |
| 20260906135650 | 84 | 114 | 0.0 | 0.0 | 0.00 | 0.00 | 0.00 | 84 | 1008.1 |
| 20260906135548 | 84 | 113 | 0.0 | 0.0 | 0.00 | 0.00 | 0.00 | 85 | 1008.1 |
| 20260906135449 | 84 | 114 | 0.0 | 0.0 | 0.00 | 0.00 | 0.00 | 85 | 1008.1 |
| 20260906135350 | 84 | 114 | 0.0 | 0.0 | 0.00 | 0.00 | 0.00 | 85 | 1008.1 |
| 20260906135248 | 84 | 117 | 0.0 | 0.0 | 0.00 | 0.00 | 0.00 | 85 | 1008.2 |
| 20260906135150 | 84 | 116 | 0.0 | 0.0 | 0.00 | 0.00 | 0.00 | 85 | 1008.1 |
| 20260906135048 | 84 | 116 | 0.0 | 0.0 | 0.00 | 0.00 | 0.00 | 85 | 1008.1 |
| 20260906134948 | 83 | 116 | 0.0 | 0.0 | 0.00 | 0.00 | 0.00 | 86 | 1008.0 |
| 20260906134850 | 83 | 116 | 0.0 | 0.0 | 0.00 | 0.00 | 0.00 | 85 | 1008.1 |
| 20260906134750 | 83 | 116 | 0.0 | 0.0 | 0.00 | 0.00 | 0.00 | 86 | 1008.0 |
| 20260906134650 | 83 | 117 | 0.0 | 0.0 | 0.00 | 0.00 | 0.00 | 86 | 1008.0 |
| 20260906134549 | 83 | 117 | 0.0 | 0.0 | 0.00 | 0.00 | 0.00 | 86 | 1008.0 |
| 20260906134450 | 83 | 117 | 0.0 | 0.0 | 0.00 | 0.00 | 0.00 | 86 | 1007.9 |
| 20260906134349 | 83 | 117 | 0.0 | 0.0 | 0.00 | 0.00 | 0.00 | 86 | 1007.9 |
| 20260906134248 | 83 | 117 | 0.0 | 0.0 | 0.00 | 0.00 | 0.00 | 86 | 1007.9 |
| 20260906134149 | 83 | 117 | 0.0 | 0.0 | 0.00 | 0.00 | 0.00 | 86 | 1007.9 |
| 20260906134050 | 83 | 117 | 0.0 | 0.0 | 0.00 | 0.00 | 0.00 | 86 | 1007.9 |
| 20260906133949 | 83 | 117 | 0.0 | 0.0 | 0.00 | 0.00 | 0.00 | 86 | 1007.8 |
| 20260906133850 | 83 | 118 | 0.0 | 0.0 | 0.00 | 0.00 | 0.00 | 86 | 1007.9 |
| 20260906133750 | 83 | 116 | 0.0 | 0.0 | 0.00 | 0.00 | 0.00 | 86 | 1007.9 |
| 20260906133648 | 83 | 116 | 0.0 | 0.0 | 0.00 | 0.00 | 0.00 | 86 | 1007.8 |
| 20260906133549 | 83 | 118 | 0.0 | 0.0 | 0.00 | 0.00 | 0.00 | 86 | 1007.8 |
| 20260906133450 | 83 | 149 | 0.0 | 0.0 | 0.00 | 0.00 | 0.00 | 86 | 1007.8 |
| 20260906133348 | 83 | 155 | 0.0 | 0.0 | 0.00 | 0.00 | 0.00 | 87 | 1007.9 |
| 20260906133248 | 83 | 157 | 0.0 | 0.0 | 0.00 | 0.00 | 0.00 | 87 | 1007.9 |
| 20260906133150 | 83 | 159 | 0.0 | 0.0 | 0.00 | 0.00 | 0.00 | 87 | 1007.9 |
| 20260906133048 | 83 | 162 | 0.0 | 0.0 | 0.00 | 0.00 | 0.00 | 87 | 1007.9 |
| 20260906132950 | 83 | 176 | 0.0 | 0.0 | 0.00 | 0.00 | 0.00 | 88 | 1007.8 |
| 20260906132850 | 83 | 176 | 0.0 | 0.0 | 0.00 | 0.00 | 0.00 | 88 | 1007.8 |
| 20260906132748 | 82 | 176 | 0.0 | 0.0 | 0.00 | 0.00 | 0.00 | 88 | 1007.8 |
| 20260906132648 | 82 | 178 | 0.0 | 0.0 | 0.00 | 0.00 | 0.00 | 88 | 1007.9 |
| 20260906132549 | 82 | 179 | 0.0 | 0.0 | 0.00 | 0.00 | 0.00 | 88 | 1007.9 |
| 20260906132450 | 82 | 179 | 0.0 | 0.0 | 0.00 | 0.00 | 0.00 | 88 | 1007.8 |
| 20260906132349 | 82 | 179 | 0.0 | 0.0 | 0.00 | 0.00 | 0.00 | 88 | 1007.8 |
| 20260906132248 | 82 | 179 | 0.0 | 0.0 | 0.00 | 0.00 | 0.00 | 89 | 1007.9 |
| 20260906132148 | 82 | 182 | 0.0 | 0.0 | 0.00 | 0.00 | 0.00 | 89 | 1007.9 |
| 20260906132048 | 82 | 183 | 0.0 | 0.0 | 0.00 | 0.00 | 0.00 | 89 | 1007.9 |
| 20260906131949 | 82 | 183 | 0.0 | 0.0 | 0.00 | 0.00 | 0.00 | 89 | 1007.8 |
| 20260906131848 | 82 | 183 | 0.0 | 0.0 | 0.00 | 0.00 | 0.00 | 89 | 1007.8 |
| 20260906131749 | 81 | 183 | 0.0 | 0.0 | 0.00 | 0.00 | 0.00 | 89 | 1007.8 |
| 20260906131648 | 81 | 183 | 0.0 | 0.0 | 0.00 | 0.00 | 0.00 | 90 | 1007.9 |
| 20260906131548 | 81 | 183 | 0.0 | 0.0 | 0.00 | 0.00 | 0.00 | 90 | 1007.8 |
| 20260906131447 | 81 | 183 | 0.0 | 0.0 | 0.00 | 0.00 | 0.00 | 90 | 1007.8 |
| 20260906131349 | 81 | 183 | 0.0 | 0.0 | 0.00 | 0.00 | 0.00 | 90 | 1007.8 |
| 20260906131249 | 81 | 183 | 0.0 | 0.0 | 0.00 | 0.00 | 0.00 | 90 | 1007.8 |
| 20260906131150 | 81 | 183 | 0.0 | 0.0 | 0.00 | 0.00 | 0.00 | 90 | 1007.8 |
| 20260906131047 | 81 | 183 | 0.0 | 0.0 | 0.00 | 0.00 | 0.00 | 91 | 1007.7 |
| 20260906130949 | 81 | 183 | 0.0 | 0.0 | 0.00 | 0.00 | 0.00 | 91 | 1007.7 |
| 20260906130849 | 81 | 183 | 0.0 | 0.0 | 0.00 | 0.00 | 0.00 | 91 | 1007.7 |
| 20260906130748 | 80 | 183 | 0.0 | 0.0 | 0.00 | 0.00 | 0.00 | 91 | 1007.7 |
| 20260906130648 | 80 | 183 | 0.0 | 0.0 | 0.00 | 0.00 | 0.00 | 91 | 1007.6 |
| 20260906130549 | 80 | 183 | 0.0 | 0.0 | 0.00 | 0.00 | 0.00 | 91 | 1007.6 |
| 20260906130449 | 80 | 183 | 0.0 | 0.0 | 0.00 | 0.00 | 0.00 | 91 | 1007.6 |
| 20260906130349 | 80 | 183 | 0.0 | 0.0 | 0.00 | 0.00 | 0.00 | 91 | 1007.6 |
| 20260906130247 | 80 | 183 | 0.0 | 0.0 | 0.00 | 0.00 | 0.00 | 91 | 1007.6 |
| 20260906130147 | 80 | 183 | 0.0 | 0.0 | 0.00 | 0.00 | 0.00 | 91 | 1007.5 |
| 20260906130049 | 80 | 183 | 0.0 | 0.0 | 0.00 | 0.00 | 0.00 | 91 | 1007.5 |
| 20260906125950 | 80 | 183 | 0.0 | 0.0 | 0.00 | 0.00 | 0.00 | 92 | 1007.5 |
| 20260906125847 | 80 | 183 | 0.0 | 0.0 | 0.00 | 0.00 | 0.00 | 92 | 1007.5 |
| 20260906125747 | 80 | 183 | 0.0 | 0.0 | 0.00 | 0.00 | 0.00 | 91 | 1007.5 |
| 20260906125648 | 80 | 183 | 0.0 | 0.0 | 0.00 | 0.00 | 0.00 | 91 | 1007.5 |
| 20260906125549 | 79 | 183 | 0.0 | 0.0 | 0.00 | 0.00 | 0.00 | 91 | 1007.5 |
| 20260906125448 | 79 | 183 | 0.0 | 0.0 | 0.00 | 0.00 | 0.00 | 91 | 1007.6 |
| 20260906125348 | 79 | 185 | 0.0 | 0.0 | 0.00 | 0.00 | 0.00 | 91 | 1007.5 |
| 20260906125247 | 79 | 185 | 0.0 | 0.0 | 0.00 | 0.00 | 0.00 | 91 | 1007.5 |
| 20260906125146 | 79 | 185 | 0.0 | 0.0 | 0.00 | 0.00 | 0.00 | 91 | 1007.5 |
| 20260906125048 | 79 | 185 | 0.0 | 0.0 | 0.00 | 0.00 | 0.00 | 91 | 1007.5 |
| 20260906124949 | 79 | 185 | 0.0 | 0.0 | 0.00 | 0.00 | 0.00 | 91 | 1007.5 |
| 20260906124847 | 79 | 185 | 0.0 | 0.0 | 0.00 | 0.00 | 0.00 | 91 | 1007.6 |
| 20260906124748 | 79 | 185 | 0.0 | 0.0 | 0.00 | 0.00 | 0.00 | 91 | 1007.5 |
| 20260906124649 | 79 | 185 | 0.0 | 0.0 | 0.00 | 0.00 | 0.00 | 91 | 1007.5 |
| 20260906124548 | 79 | 185 | 0.0 | 0.0 | 0.00 | 0.00 | 0.00 | 91 | 1007.6 |
| 20260906124448 | 79 | 185 | 0.0 | 0.0 | 0.00 | 0.00 | 0.00 | 91 | 1007.5 |
| 20260906124348 | 79 | 185 | 0.0 | 0.0 | 0.00 | 0.00 | 0.00 | 91 | 1007.4 |
| 20260906124248 | 79 | 185 | 0.0 | 0.0 | 0.00 | 0.00 | 0.00 | 91 | 1007.5 |
| 20260906124148 | 79 | 185 | 0.0 | 0.0 | 0.00 | 0.00 | 0.00 | 91 | 1007.5 |
| 20260906124047 | 79 | 185 | 0.0 | 0.0 | 0.00 | 0.00 | 0.00 | 91 | 1007.4 |
| 20260906123942 | 79 | 185 | 0.0 | 0.0 | 0.00 | 0.00 | 0.00 | 92 | 1007.4 |
| 20260906123840 | 79 | 185 | 0.0 | 0.0 | 0.00 | 0.00 | 0.00 | 92 | 1007.4 |
| 20260906123740 | 79 | 185 | 0.0 | 0.0 | 0.00 | 0.00 | 0.00 | 92 | 1007.3 |
| 20260906123631 | 79 | 185 | 0.0 | 0.0 | 0.00 | 0.00 | 0.00 | 92 | 1007.3 |
| 20260906123532 | 79 | 185 | 0.0 | 0.0 | 0.00 | 0.00 | 0.00 | 92 | 1007.3 |
| 20260906123426 | 79 | 185 | 0.0 | 0.0 | 0.00 | 0.00 | 0.00 | 92 | 1007.4 |
| 20260906123326 | 79 | 185 | 0.0 | 0.0 | 0.00 | 0.00 | 0.00 | 92 | 1007.3 |
| 20260906123218 | 79 | 185 | 0.0 | 0.0 | 0.00 | 0.00 | 0.00 | 92 | 1007.3 |
| 20260906123116 | 79 | 185 | 0.0 | 0.0 | 0.00 | 0.00 | 0.00 | 91 | 1007.3 |
| 20260906123004 | 79 | 185 | 0.0 | 0.0 | 0.00 | 0.00 | 0.00 | 91 | 1007.3 |
| 20260906122902 | 79 | 185 | 0.0 | 0.0 | 0.00 | 0.00 | 0.00 | 91 | 1007.3 |
| 20260906122802 | 79 | 185 | 0.0 | 0.0 | 0.00 | 0.00 | 0.00 | 91 | 1007.2 |
| 20260906122702 | 79 | 185 | 0.0 | 0.0 | 0.00 | 0.00 | 0.00 | 91 | 1007.2 |
| 20260906122604 | 79 | 185 | 0.0 | 0.0 | 0.00 | 0.00 | 0.00 | 91 | 1007.3 |
| 20260906122504 | 79 | 185 | 0.0 | 0.0 | 0.00 | 0.00 | 0.00 | 91 | 1007.2 |
| 20260906122402 | 79 | 185 | 0.0 | 0.0 | 0.00 | 0.00 | 0.00 | 91 | 1007.2 |
| 20260906122306 | 79 | 185 | 0.0 | 0.0 | 0.00 | 0.00 | 0.00 | 91 | 1007.1 |
| 20260906122202 | 79 | 185 | 0.0 | 0.0 | 0.00 | 0.00 | 0.00 | 91 | 1007.1 |
| 20260906122104 | 79 | 185 | 0.0 | 0.0 | 0.00 | 0.00 | 0.00 | 91 | 1007.1 |
| 20260906122002 | 79 | 185 | 0.0 | 0.0 | 0.00 | 0.00 | 0.00 | 91 | 1007.0 |
| 20260906121902 | 79 | 185 | 0.0 | 0.0 | 0.00 | 0.00 | 0.00 | 91 | 1007.0 |
| 20260906121803 | 79 | 185 | 0.0 | 0.0 | 0.00 | 0.00 | 0.00 | 91 | 1007.0 |
| 20260906121704 | 79 | 185 | 0.0 | 0.0 | 0.00 | 0.00 | 0.00 | 91 | 1007.0 |
| 20260906121604 | 79 | 185 | 0.0 | 0.0 | 0.00 | 0.00 | 0.00 | 91 | 1006.9 |
| 20260906121504 | 79 | 185 | 0.0 | 0.0 | 0.00 | 0.00 | 0.00 | 91 | 1006.9 |
| 20260906121402 | 79 | 185 | 0.0 | 0.0 | 0.00 | 0.00 | 0.00 | 91 | 1006.9 |
| 20260906121302 | 79 | 185 | 0.0 | 0.0 | 0.00 | 0.00 | 0.00 | 91 | 1006.9 |
| 20260906121202 | 79 | 185 | 0.0 | 0.0 | 0.00 | 0.00 | 0.00 | 91 | 1006.8 |
| 20260906121103 | 79 | 185 | 0.0 | 0.0 | 0.00 | 0.00 | 0.00 | 91 | 1006.9 |
| 20260906121002 | 79 | 185 | 0.0 | 0.0 | 0.00 | 0.00 | 0.00 | 91 | 1006.9 |
| 20260906120903 | 79 | 185 | 0.0 | 0.0 | 0.00 | 0.00 | 0.00 | 91 | 1006.9 |
| 20260906120804 | 79 | 185 | 0.0 | 0.0 | 0.00 | 0.00 | 0.00 | 91 | 1006.9 |
| 20260906120704 | 79 | 185 | 0.0 | 0.0 | 0.00 | 0.00 | 0.00 | 91 | 1006.9 |
| 20260906120603 | 79 | 185 | 0.0 | 0.0 | 0.00 | 0.00 | 0.00 | 91 | 1006.9 |
| 20260906120504 | 79 | 185 | 0.0 | 0.0 | 0.00 | 0.00 | 0.00 | 91 | 1006.9 |
| 20260906120403 | 79 | 185 | 0.0 | 0.0 | 0.00 | 0.00 | 0.00 | 91 | 1006.9 |
| 20260906120302 | 79 | 185 | 0.0 | 0.0 | 0.00 | 0.00 | 0.00 | 91 | 1006.9 |
| 20260906120202 | 79 | 185 | 0.0 | 0.0 | 0.00 | 0.00 | 0.00 | 91 | 1006.9 |
| 20260906120104 | 79 | 185 | 0.0 | 0.0 | 0.00 | 0.00 | 0.00 | 91 | 1006.9 |
| 20260906120002 | 79 | 185 | 0.0 | 0.0 | 0.00 | 0.00 | 0.00 | 91 | 1006.9 |
| 20260906115902 | 79 | 185 | 0.0 | 0.0 | 0.00 | 0.00 | 0.00 | 91 | 1006.9 |
| 20260906115802 | 79 | 185 | 0.0 | 0.0 | 0.00 | 0.00 | 0.00 | 91 | 1006.9 |
| 20260906115702 | 79 | 185 | 0.0 | 0.0 | 0.00 | 0.00 | 0.00 | 91 | 1006.9 |
| 20260906115602 | 79 | 185 | 0.0 | 0.0 | 0.00 | 0.00 | 0.00 | 91 | 1006.9 |
| 20260906115502 | 79 | 185 | 0.0 | 0.0 | 0.00 | 0.00 | 0.00 | 91 | 1006.8 |
| 20260906115401 | 79 | 185 | 0.0 | 0.0 | 0.00 | 0.00 | 0.00 | 91 | 1006.8 |
| 20260906115305 | 79 | 185 | 0.0 | 0.0 | 0.00 | 0.00 | 0.00 | 91 | 1006.8 |
| 20260906115203 | 79 | 185 | 0.0 | 0.0 | 0.00 | 0.00 | 0.00 | 91 | 1006.7 |
| 20260906115104 | 79 | 185 | 0.0 | 0.0 | 0.00 | 0.00 | 0.00 | 91 | 1006.7 |
| 20260906115003 | 79 | 185 | 0.0 | 0.0 | 0.00 | 0.00 | 0.00 | 92 | 1006.7 |
| 20260906114905 | 79 | 185 | 0.0 | 0.0 | 0.00 | 0.00 | 0.00 | 92 | 1006.6 |
| 20260906114802 | 79 | 185 | 0.0 | 0.0 | 0.00 | 0.00 | 0.00 | 91 | 1006.6 |
| 20260906114704 | 79 | 185 | 0.0 | 0.0 | 0.00 | 0.00 | 0.00 | 91 | 1006.6 |
| 20260906114602 | 79 | 185 | 0.0 | 0.0 | 0.00 | 0.00 | 0.00 | 91 | 1006.5 |
| 20260906114504 | 79 | 185 | 0.0 | 0.0 | 0.00 | 0.00 | 0.00 | 91 | 1006.6 |
| 20260906114404 | 79 | 185 | 0.0 | 0.0 | 0.00 | 0.00 | 0.00 | 92 | 1006.5 |
| 20260906114302 | 79 | 185 | 0.0 | 0.0 | 0.00 | 0.00 | 0.00 | 92 | 1006.5 |
| 20260906114203 | 79 | 185 | 0.0 | 0.0 | 0.00 | 0.00 | 0.00 | 92 | 1006.5 |
| 20260906114103 | 79 | 185 | 0.0 | 0.0 | 0.00 | 0.00 | 0.00 | 92 | 1006.5 |
| 20260906114004 | 79 | 185 | 0.0 | 0.0 | 0.00 | 0.00 | 0.00 | 91 | 1006.5 |
| 20260906113902 | 79 | 185 | 0.0 | 0.0 | 0.00 | 0.00 | 0.00 | 91 | 1006.4 |
| 20260906113804 | 79 | 185 | 0.0 | 0.0 | 0.00 | 0.00 | 0.00 | 91 | 1006.5 |
| 20260906113703 | 79 | 185 | 0.0 | 0.0 | 0.00 | 0.00 | 0.00 | 91 | 1006.4 |
| 20260906113602 | 79 | 185 | 0.0 | 0.0 | 0.00 | 0.00 | 0.00 | 91 | 1006.4 |
| 20260906113503 | 79 | 185 | 0.0 | 0.0 | 0.00 | 0.00 | 0.00 | 91 | 1006.4 |
| 20260906113402 | 79 | 186 | 0.0 | 0.0 | 0.00 | 0.00 | 0.00 | 91 | 1006.5 |
| 20260906113303 | 79 | 186 | 0.0 | 0.0 | 0.00 | 0.00 | 0.00 | 91 | 1006.4 |
| 20260906113204 | 79 | 186 | 0.0 | 0.0 | 0.00 | 0.00 | 0.00 | 91 | 1006.4 |
| 20260906113102 | 79 | 186 | 0.0 | 0.0 | 0.00 | 0.00 | 0.00 | 91 | 1006.4 |
| 20260906113003 | 79 | 186 | 0.0 | 0.0 | 0.00 | 0.00 | 0.00 | 91 | 1006.3 |
| 20260906112902 | 79 | 186 | 0.0 | 0.0 | 0.00 | 0.00 | 0.00 | 91 | 1006.3 |
| 20260906112803 | 79 | 186 | 0.0 | 0.0 | 0.00 | 0.00 | 0.00 | 91 | 1006.3 |
| 20260906112703 | 79 | 186 | 0.0 | 0.0 | 0.00 | 0.00 | 0.00 | 91 | 1006.3 |
| 20260906112602 | 79 | 186 | 0.0 | 0.0 | 0.00 | 0.00 | 0.00 | 91 | 1006.3 |
| 20260906112505 | 79 | 186 | 0.0 | 0.0 | 0.00 | 0.00 | 0.00 | 91 | 1006.3 |
| 20260906112402 | 79 | 186 | 0.0 | 0.0 | 0.00 | 0.00 | 0.00 | 91 | 1006.3 |
| 20260906112306 | 79 | 186 | 0.0 | 0.0 | 0.00 | 0.00 | 0.00 | 91 | 1006.4 |
| 20260906112203 | 79 | 186 | 0.0 | 0.0 | 0.00 | 0.00 | 0.00 | 91 | 1006.4 |
| 20260906112102 | 79 | 186 | 0.0 | 0.0 | 0.00 | 0.00 | 0.00 | 91 | 1006.4 |
| 20260906112003 | 79 | 186 | 0.0 | 0.0 | 0.00 | 0.00 | 0.00 | 91 | 1006.3 |
| 20260906111903 | 79 | 186 | 0.0 | 0.0 | 0.00 | 0.00 | 0.00 | 91 | 1006.4 |
| 20260906111803 | 79 | 186 | 0.0 | 0.0 | 0.00 | 0.00 | 0.00 | 91 | 1006.4 |
| 20260906111704 | 79 | 186 | 0.0 | 0.0 | 0.00 | 0.00 | 0.00 | 91 | 1006.3 |
| 20260906111604 | 79 | 186 | 0.0 | 0.0 | 0.00 | 0.00 | 0.00 | 91 | 1006.3 |
| 20260906111503 | 79 | 186 | 0.0 | 0.0 | 0.00 | 0.00 | 0.00 | 91 | 1006.4 |
| 20260906111403 | 79 | 186 | 0.0 | 0.0 | 0.00 | 0.00 | 0.00 | 91 | 1006.4 |
| 20260906111304 | 79 | 186 | 0.0 | 0.0 | 0.00 | 0.00 | 0.00 | 91 | 1006.4 |
| 20260906111203 | 79 | 186 | 0.0 | 0.0 | 0.00 | 0.00 | 0.00 | 91 | 1006.4 |
| 20260906111103 | 79 | 186 | 0.0 | 0.0 | 0.00 | 0.00 | 0.00 | 91 | 1006.3 |
| 20260906111002 | 79 | 186 | 0.0 | 0.0 | 0.00 | 0.00 | 0.00 | 91 | 1006.5 |
| 20260906110904 | 79 | 186 | 0.0 | 0.0 | 0.00 | 0.00 | 0.00 | 91 | 1006.4 |
| 20260906110803 | 79 | 186 | 0.0 | 0.0 | 0.00 | 0.00 | 0.00 | 91 | 1006.5 |
| 20260906110702 | 79 | 186 | 0.0 | 0.0 | 0.00 | 0.00 | 0.00 | 91 | 1006.5 |
| 20260906110604 | 79 | 186 | 0.0 | 0.0 | 0.00 | 0.00 | 0.00 | 91 | 1006.4 |
| 20260906110503 | 79 | 186 | 0.0 | 0.0 | 0.00 | 0.00 | 0.00 | 91 | 1006.5 |
| 20260906110403 | 79 | 186 | 0.0 | 0.0 | 0.00 | 0.00 | 0.00 | 90 | 1006.5 |
| 20260906110303 | 79 | 186 | 0.0 | 0.0 | 0.00 | 0.00 | 0.00 | 90 | 1006.5 |
| 20260906110152 | 79 | 186 | 0.0 | 0.0 | 0.00 | 0.00 | 0.00 | 90 | 1006.4 |
| 20260906110046 | 79 | 186 | 0.0 | 0.0 | 0.00 | 0.00 | 0.00 | 90 | 1006.4 |
| 20260906105945 | 79 | 186 | 0.0 | 0.0 | 0.00 | 0.00 | 0.00 | 90 | 1006.4 |
| 20260906105845 | 80 | 186 | 0.0 | 0.0 | 0.00 | 0.00 | 0.00 | 90 | 1006.4 |
| 20260906105745 | 80 | 186 | 0.0 | 0.0 | 0.00 | 0.00 | 0.00 | 90 | 1006.4 |
| 20260906105646 | 80 | 186 | 0.0 | 0.0 | 0.00 | 0.00 | 0.00 | 90 | 1006.4 |
| 20260906105545 | 80 | 186 | 0.0 | 0.0 | 0.00 | 0.00 | 0.00 | 90 | 1006.4 |
| 20260906105446 | 80 | 186 | 0.0 | 0.0 | 0.00 | 0.00 | 0.00 | 90 | 1006.4 |
| 20260906105345 | 80 | 186 | 0.0 | 0.0 | 0.00 | 0.00 | 0.00 | 90 | 1006.3 |
| 20260906105245 | 80 | 186 | 0.0 | 0.0 | 0.00 | 0.00 | 0.00 | 90 | 1006.4 |
| 20260906105146 | 80 | 186 | 0.0 | 0.0 | 0.00 | 0.00 | 0.00 | 90 | 1006.4 |
| 20260906105046 | 80 | 186 | 0.0 | 0.0 | 0.00 | 0.00 | 0.00 | 90 | 1006.4 |
| 20260906104945 | 80 | 186 | 0.0 | 0.0 | 0.00 | 0.00 | 0.00 | 90 | 1006.3 |
| 20260906104844 | 80 | 186 | 0.0 | 0.0 | 0.00 | 0.00 | 0.00 | 90 | 1006.3 |
| 20260906104745 | 80 | 186 | 0.0 | 0.0 | 0.00 | 0.00 | 0.00 | 90 | 1006.4 |
| 20260906104647 | 80 | 186 | 0.0 | 0.0 | 0.00 | 0.00 | 0.00 | 90 | 1006.3 |
| 20260906104544 | 80 | 186 | 0.0 | 0.0 | 0.00 | 0.00 | 0.00 | 90 | 1006.4 |
| 20260906104445 | 80 | 186 | 0.0 | 0.0 | 0.00 | 0.00 | 0.00 | 90 | 1006.4 |
| 20260906104344 | 80 | 186 | 0.0 | 0.0 | 0.00 | 0.00 | 0.00 | 90 | 1006.4 |
| 20260906104244 | 80 | 186 | 0.0 | 0.0 | 0.00 | 0.00 | 0.00 | 90 | 1006.3 |
| 20260906104145 | 80 | 186 | 0.0 | 0.0 | 0.00 | 0.00 | 0.00 | 90 | 1006.3 |
| 20260906104046 | 80 | 186 | 0.0 | 0.0 | 0.00 | 0.00 | 0.00 | 90 | 1006.4 |
| 20260906103946 | 80 | 186 | 0.0 | 0.0 | 0.00 | 0.00 | 0.00 | 90 | 1006.4 |
| 20260906103845 | 80 | 186 | 0.0 | 0.0 | 0.00 | 0.00 | 0.00 | 90 | 1006.4 |
| 20260906103746 | 80 | 186 | 0.0 | 0.0 | 0.00 | 0.00 | 0.00 | 90 | 1006.4 |
| 20260906103645 | 80 | 186 | 0.0 | 0.0 | 0.00 | 0.00 | 0.00 | 90 | 1006.4 |
| 20260906103545 | 80 | 186 | 0.0 | 0.0 | 0.00 | 0.00 | 0.00 | 90 | 1006.4 |
| 20260906103444 | 80 | 186 | 0.0 | 0.0 | 0.00 | 0.00 | 0.00 | 90 | 1006.3 |
| 20260906103344 | 80 | 186 | 0.0 | 0.0 | 0.00 | 0.00 | 0.00 | 90 | 1006.4 |
| 20260906103246 | 80 | 186 | 0.0 | 0.0 | 0.00 | 0.00 | 0.00 | 90 | 1006.4 |
| 20260906103146 | 80 | 186 | 0.0 | 0.0 | 0.00 | 0.00 | 0.00 | 90 | 1006.4 |
| 20260906103045 | 80 | 186 | 0.0 | 0.0 | 0.00 | 0.00 | 0.00 | 90 | 1006.5 |
| 20260906102945 | 80 | 186 | 0.0 | 0.0 | 0.00 | 0.00 | 0.00 | 90 | 1006.4 |
| 20260906102845 | 80 | 186 | 0.0 | 0.0 | 0.00 | 0.00 | 0.00 | 90 | 1006.4 |
| 20260906102746 | 80 | 186 | 0.0 | 0.0 | 0.00 | 0.00 | 0.00 | 90 | 1006.4 |
| 20260906102645 | 80 | 186 | 0.0 | 0.0 | 0.00 | 0.00 | 0.00 | 90 | 1006.4 |
| 20260906102545 | 80 | 186 | 0.0 | 0.0 | 0.00 | 0.00 | 0.00 | 90 | 1006.3 |
| 20260906102443 | 80 | 186 | 0.0 | 0.0 | 0.00 | 0.00 | 0.00 | 90 | 1006.4 |
| 20260906102344 | 80 | 186 | 0.0 | 0.0 | 0.00 | 0.00 | 0.00 | 90 | 1006.3 |
| 20260906102244 | 80 | 186 | 0.0 | 0.0 | 0.00 | 0.00 | 0.00 | 90 | 1006.3 |
| 20260906102143 | 80 | 186 | 0.0 | 0.0 | 0.00 | 0.00 | 0.00 | 90 | 1006.4 |
| 20260906102044 | 80 | 186 | 0.0 | 0.0 | 0.00 | 0.00 | 0.00 | 90 | 1006.4 |
| 20260906101944 | 80 | 186 | 0.0 | 0.0 | 0.00 | 0.00 | 0.00 | 90 | 1006.4 |
| 20260906101845 | 80 | 186 | 0.0 | 0.0 | 0.00 | 0.00 | 0.00 | 90 | 1006.3 |
| 20260906101743 | 80 | 186 | 0.0 | 0.0 | 0.00 | 0.00 | 0.00 | 90 | 1006.3 |
| 20260906101646 | 80 | 186 | 0.0 | 0.0 | 0.00 | 0.00 | 0.00 | 90 | 1006.2 |
| 20260906101544 | 80 | 186 | 0.0 | 0.0 | 0.00 | 0.00 | 0.00 | 90 | 1006.3 |
| 20260906101444 | 80 | 186 | 0.0 | 0.0 | 0.00 | 0.00 | 0.00 | 89 | 1006.3 |
| 20260906101346 | 80 | 186 | 0.0 | 0.0 | 0.00 | 0.00 | 0.00 | 90 | 1006.3 |
| 20260906101243 | 80 | 186 | 0.0 | 0.0 | 0.00 | 0.00 | 0.00 | 90 | 1006.3 |
| 20260906101144 | 80 | 186 | 0.0 | 0.0 | 0.00 | 0.00 | 0.00 | 90 | 1006.3 |
| 20260906101043 | 80 | 186 | 0.0 | 0.0 | 0.00 | 0.00 | 0.00 | 90 | 1006.3 |
| 20260906100945 | 80 | 186 | 0.0 | 0.0 | 0.00 | 0.00 | 0.00 | 90 | 1006.3 |
| 20260906100843 | 80 | 186 | 0.0 | 0.0 | 0.00 | 0.00 | 0.00 | 90 | 1006.3 |
| 20260906100743 | 80 | 186 | 0.0 | 0.0 | 0.00 | 0.00 | 0.00 | 90 | 1006.2 |
| 20260906100643 | 80 | 186 | 0.0 | 0.0 | 0.00 | 0.00 | 0.00 | 90 | 1006.2 |
| 20260906100545 | 80 | 186 | 0.0 | 0.0 | 0.00 | 0.00 | 0.00 | 90 | 1006.2 |
| 20260906100443 | 80 | 186 | 0.0 | 0.0 | 0.00 | 0.00 | 0.00 | 90 | 1006.2 |
| 20260906100343 | 80 | 186 | 0.0 | 0.0 | 0.00 | 0.00 | 0.00 | 90 | 1006.1 |
| 20260906100245 | 80 | 186 | 0.0 | 0.0 | 0.00 | 0.00 | 0.00 | 90 | 1006.1 |
| 20260906100146 | 80 | 186 | 0.0 | 0.0 | 0.00 | 0.00 | 0.00 | 90 | 1006.1 |
| 20260906100045 | 80 | 186 | 0.0 | 0.0 | 0.00 | 0.00 | 0.00 | 90 | 1006.0 |
| 20260906095944 | 80 | 186 | 0.0 | 0.0 | 0.00 | 0.00 | 0.00 | 90 | 1006.1 |
| 20260906095843 | 80 | 186 | 0.0 | 0.0 | 0.00 | 0.00 | 0.00 | 90 | 1006.1 |
| 20260906095743 | 80 | 186 | 0.0 | 0.0 | 0.00 | 0.00 | 0.00 | 89 | 1006.1 |
| 20260906095644 | 80 | 186 | 0.0 | 0.0 | 0.00 | 0.00 | 0.00 | 89 | 1006.0 |
| 20260906095546 | 80 | 186 | 0.0 | 0.0 | 0.00 | 0.00 | 0.00 | 90 | 1006.0 |
| 20260906095445 | 80 | 186 | 0.0 | 0.0 | 0.00 | 0.00 | 0.00 | 89 | 1006.0 |
| 20260906095345 | 80 | 186 | 0.0 | 0.0 | 0.00 | 0.00 | 0.00 | 89 | 1006.1 |
| 20260906095243 | 80 | 186 | 0.0 | 0.0 | 0.00 | 0.00 | 0.00 | 89 | 1006.0 |
| 20260906095145 | 80 | 186 | 0.0 | 0.0 | 0.00 | 0.00 | 0.00 | 89 | 1006.0 |
| 20260906095044 | 80 | 186 | 0.0 | 0.0 | 0.00 | 0.00 | 0.00 | 89 | 1006.0 |
| 20260906094944 | 80 | 186 | 0.0 | 0.0 | 0.00 | 0.00 | 0.00 | 89 | 1006.0 |
| 20260906094843 | 80 | 186 | 0.0 | 0.0 | 0.00 | 0.00 | 0.00 | 89 | 1006.0 |
| 20260906094744 | 80 | 186 | 0.0 | 0.0 | 0.00 | 0.00 | 0.00 | 89 | 1006.0 |
| 20260906094644 | 80 | 186 | 0.0 | 0.0 | 0.00 | 0.00 | 0.00 | 89 | 1006.0 |
| 20260906094543 | 80 | 186 | 0.0 | 0.0 | 0.00 | 0.00 | 0.00 | 89 | 1006.0 |
| 20260906094444 | 80 | 186 | 0.0 | 0.0 | 0.00 | 0.00 | 0.00 | 89 | 1005.9 |
| 20260906094343 | 80 | 186 | 0.0 | 0.0 | 0.00 | 0.00 | 0.00 | 89 | 1006.0 |
| 20260906094242 | 80 | 186 | 0.0 | 0.0 | 0.00 | 0.00 | 0.00 | 89 | 1005.9 |
| 20260906094145 | 80 | 186 | 0.0 | 0.0 | 0.00 | 0.00 | 0.00 | 89 | 1005.9 |
| 20260906094043 | 80 | 186 | 0.0 | 0.0 | 0.00 | 0.00 | 0.00 | 89 | 1005.9 |
| 20260906093942 | 80 | 186 | 0.0 | 0.0 | 0.00 | 0.00 | 0.00 | 89 | 1005.9 |
| 20260906093844 | 80 | 186 | 0.0 | 0.0 | 0.00 | 0.00 | 0.00 | 89 | 1005.8 |
| 20260906093744 | 80 | 186 | 0.0 | 0.0 | 0.00 | 0.00 | 0.00 | 89 | 1005.9 |
| 20260906093643 | 80 | 186 | 0.0 | 0.0 | 0.00 | 0.00 | 0.00 | 89 | 1005.8 |
| 20260906093544 | 80 | 186 | 0.0 | 0.0 | 0.00 | 0.00 | 0.00 | 89 | 1005.8 |
| 20260906093443 | 80 | 186 | 0.0 | 0.0 | 0.00 | 0.00 | 0.00 | 89 | 1005.8 |
| 20260906093343 | 80 | 186 | 0.0 | 0.0 | 0.00 | 0.00 | 0.00 | 89 | 1005.7 |
| 20260906093242 | 80 | 186 | 0.0 | 0.0 | 0.00 | 0.00 | 0.00 | 89 | 1005.7 |
| 20260906093145 | 80 | 186 | 0.0 | 0.0 | 0.00 | 0.00 | 0.00 | 89 | 1005.8 |
| 20260906093044 | 80 | 186 | 0.0 | 0.0 | 0.00 | 0.00 | 0.00 | 89 | 1005.8 |
| 20260906092943 | 80 | 186 | 0.0 | 0.0 | 0.00 | 0.00 | 0.00 | 89 | 1005.8 |
| 20260906092844 | 80 | 186 | 0.0 | 0.0 | 0.00 | 0.00 | 0.00 | 89 | 1005.8 |
| 20260906092744 | 80 | 186 | 0.0 | 0.0 | 0.00 | 0.00 | 0.00 | 88 | 1005.8 |
| 20260906092644 | 80 | 186 | 0.0 | 0.0 | 0.00 | 0.00 | 0.00 | 88 | 1005.9 |
| 20260906092542 | 80 | 186 | 0.0 | 0.0 | 0.00 | 0.00 | 0.00 | 88 | 1005.9 |
| 20260906092443 | 80 | 186 | 0.0 | 0.0 | 0.00 | 0.00 | 0.00 | 88 | 1005.9 |
| 20260906092343 | 80 | 186 | 0.0 | 0.0 | 0.00 | 0.00 | 0.00 | 88 | 1006.0 |
| 20260906092243 | 80 | 186 | 0.0 | 0.0 | 0.00 | 0.00 | 0.00 | 88 | 1006.0 |
| 20260906092144 | 81 | 186 | 0.0 | 0.0 | 0.00 | 0.00 | 0.00 | 88 | 1006.0 |
| 20260906092043 | 81 | 186 | 0.0 | 0.0 | 0.00 | 0.00 | 0.00 | 88 | 1005.9 |
| 20260906091944 | 81 | 186 | 0.0 | 0.0 | 0.00 | 0.00 | 0.00 | 88 | 1006.0 |
| 20260906091843 | 81 | 186 | 0.0 | 0.0 | 0.00 | 0.00 | 0.00 | 88 | 1006.0 |
| 20260906091744 | 81 | 186 | 0.0 | 0.0 | 0.00 | 0.00 | 0.00 | 88 | 1005.9 |
| 20260906091643 | 81 | 186 | 0.0 | 0.0 | 0.00 | 0.00 | 0.00 | 88 | 1006.0 |
| 20260906091543 | 81 | 186 | 0.0 | 0.0 | 0.00 | 0.00 | 0.00 | 88 | 1005.9 |
| 20260906091443 | 81 | 186 | 0.0 | 0.0 | 0.00 | 0.00 | 0.00 | 88 | 1005.9 |
| 20260906091344 | 81 | 186 | 0.0 | 0.0 | 0.00 | 0.00 | 0.00 | 88 | 1005.9 |
| 20260906091244 | 81 | 186 | 0.0 | 0.0 | 0.00 | 0.00 | 0.00 | 88 | 1005.8 |
| 20260906091143 | 81 | 186 | 0.0 | 0.0 | 0.00 | 0.00 | 0.00 | 88 | 1005.8 |
| 20260906091043 | 81 | 186 | 0.0 | 0.0 | 0.00 | 0.00 | 0.00 | 88 | 1005.8 |
| 20260906090942 | 81 | 186 | 0.0 | 0.0 | 0.00 | 0.00 | 0.00 | 88 | 1005.9 |
| 20260906090843 | 81 | 186 | 0.0 | 0.0 | 0.00 | 0.00 | 0.00 | 88 | 1005.8 |
| 20260906090742 | 81 | 186 | 0.0 | 0.0 | 0.00 | 0.00 | 0.00 | 88 | 1005.8 |
| 20260906090645 | 81 | 186 | 0.0 | 0.0 | 0.00 | 0.00 | 0.00 | 88 | 1005.9 |
| 20260906090543 | 81 | 186 | 0.0 | 0.0 | 0.00 | 0.00 | 0.00 | 88 | 1005.9 |
| 20260906090442 | 81 | 186 | 0.0 | 0.0 | 0.00 | 0.00 | 0.00 | 87 | 1005.9 |
| 20260906090342 | 81 | 186 | 0.0 | 0.0 | 0.00 | 0.00 | 0.00 | 87 | 1005.9 |
| 20260906090243 | 81 | 186 | 0.0 | 0.0 | 0.00 | 0.00 | 0.00 | 87 | 1005.9 |
| 20260906090143 | 81 | 186 | 0.0 | 0.0 | 0.00 | 0.00 | 0.00 | 87 | 1006.0 |
| 20260906090044 | 81 | 186 | 0.0 | 0.0 | 0.00 | 0.00 | 0.00 | 87 | 1005.9 |
| 20260906085943 | 81 | 186 | 0.0 | 0.0 | 0.00 | 0.00 | 0.00 | 87 | 1005.9 |
| 20260906085842 | 81 | 186 | 0.0 | 0.0 | 0.00 | 0.00 | 0.00 | 87 | 1006.0 |
| 20260906085743 | 81 | 186 | 0.0 | 0.0 | 0.00 | 0.00 | 0.00 | 87 | 1005.9 |
| 20260906085644 | 81 | 186 | 0.0 | 0.0 | 0.00 | 0.00 | 0.00 | 87 | 1005.9 |
| 20260906085543 | 81 | 186 | 0.0 | 0.0 | 0.00 | 0.00 | 0.00 | 87 | 1005.9 |
| 20260906085442 | 81 | 186 | 0.0 | 0.0 | 0.00 | 0.00 | 0.00 | 87 | 1005.8 |
| 20260906085342 | 81 | 186 | 0.0 | 0.0 | 0.00 | 0.00 | 0.00 | 87 | 1005.8 |
| 20260906085242 | 81 | 186 | 0.0 | 0.0 | 0.00 | 0.00 | 0.00 | 87 | 1005.8 |
| 20260906085142 | 81 | 186 | 0.0 | 0.0 | 0.00 | 0.00 | 0.00 | 87 | 1005.8 |
| 20260906085044 | 81 | 186 | 0.0 | 0.0 | 0.00 | 0.00 | 0.00 | 87 | 1005.8 |
| 20260906084942 | 81 | 186 | 0.0 | 0.0 | 0.00 | 0.00 | 0.00 | 87 | 1005.8 |
| 20260906084843 | 81 | 186 | 0.0 | 0.0 | 0.00 | 0.00 | 0.00 | 87 | 1005.7 |
| 20260906084742 | 81 | 186 | 0.0 | 0.0 | 0.00 | 0.00 | 0.00 | 87 | 1005.7 |
| 20260906084643 | 81 | 186 | 0.0 | 0.0 | 0.00 | 0.00 | 0.00 | 87 | 1005.7 |
| 20260906084542 | 81 | 186 | 0.0 | 0.0 | 0.00 | 0.00 | 0.00 | 87 | 1005.7 |
| 20260906084444 | 81 | 186 | 0.0 | 0.0 | 0.00 | 0.00 | 0.00 | 87 | 1005.8 |
| 20260906084341 | 81 | 186 | 0.0 | 0.0 | 0.00 | 0.00 | 0.00 | 87 | 1005.7 |
| 20260906084241 | 81 | 186 | 0.0 | 0.0 | 0.00 | 0.00 | 0.00 | 87 | 1005.7 |
| 20260906084142 | 81 | 186 | 0.0 | 0.0 | 0.00 | 0.00 | 0.00 | 87 | 1005.6 |
| 20260906084043 | 81 | 186 | 0.0 | 0.0 | 0.00 | 0.00 | 0.00 | 87 | 1005.7 |
| 20260906083942 | 81 | 188 | 0.0 | 0.0 | 0.00 | 0.00 | 0.00 | 87 | 1005.6 |
| 20260906083844 | 81 | 186 | 0.0 | 0.0 | 0.00 | 0.00 | 0.00 | 87 | 1005.7 |
| 20260906083744 | 81 | 188 | 0.0 | 0.0 | 0.00 | 0.00 | 0.00 | 87 | 1005.7 |
| 20260906083642 | 81 | 188 | 0.0 | 0.0 | 0.00 | 0.00 | 0.00 | 87 | 1005.7 |
| 20260906083543 | 81 | 186 | 0.0 | 0.0 | 0.00 | 0.00 | 0.00 | 87 | 1005.8 |
| 20260906083443 | 81 | 186 | 0.0 | 0.0 | 0.00 | 0.00 | 0.00 | 87 | 1005.8 |
| 20260906083342 | 81 | 186 | 0.0 | 0.0 | 0.00 | 0.00 | 0.00 | 87 | 1005.8 |
| 20260906083242 | 81 | 188 | 0.0 | 0.0 | 0.00 | 0.00 | 0.00 | 87 | 1005.8 |
| 20260906083143 | 81 | 186 | 0.0 | 0.0 | 0.00 | 0.00 | 0.00 | 87 | 1005.8 |
| 20260906083041 | 81 | 186 | 0.0 | 0.0 | 0.00 | 0.00 | 0.00 | 87 | 1005.8 |
| 20260906082943 | 81 | 186 | 0.0 | 0.0 | 0.00 | 0.00 | 0.00 | 87 | 1005.8 |
| 20260906082843 | 81 | 186 | 0.0 | 0.0 | 0.00 | 0.00 | 0.00 | 87 | 1005.8 |
| 20260906082743 | 81 | 188 | 0.0 | 0.0 | 0.00 | 0.00 | 0.00 | 87 | 1005.9 |
| 20260906082643 | 81 | 188 | 0.0 | 0.0 | 0.00 | 0.00 | 0.00 | 87 | 1005.9 |
| 20260906082541 | 81 | 186 | 0.0 | 0.0 | 0.00 | 0.00 | 0.00 | 87 | 1005.8 |
| 20260906082443 | 81 | 188 | 0.0 | 0.0 | 0.00 | 0.00 | 0.00 | 87 | 1005.9 |
| 20260906082343 | 81 | 186 | 0.0 | 0.0 | 0.00 | 0.00 | 0.00 | 87 | 1005.8 |
| 20260906082242 | 81 | 188 | 0.0 | 0.0 | 0.00 | 0.00 | 0.00 | 87 | 1005.9 |
| 20260906082142 | 81 | 188 | 0.0 | 0.0 | 0.00 | 0.00 | 0.00 | 87 | 1005.9 |
| 20260906082042 | 81 | 188 | 0.0 | 0.0 | 0.00 | 0.00 | 0.00 | 87 | 1005.9 |
| 20260906081941 | 81 | 188 | 0.0 | 2.0 | 0.00 | 0.00 | 0.00 | 87 | 1005.9 |
| 20260906081840 | 81 | 186 | 0.0 | 2.0 | 0.00 | 0.00 | 0.00 | 87 | 1005.9 |
| 20260906081741 | 81 | 186 | 0.0 | 2.0 | 0.00 | 0.00 | 0.00 | 87 | 1005.9 |
| 20260906081641 | 81 | 186 | 0.0 | 2.0 | 0.00 | 0.00 | 0.00 | 87 | 1006.0 |
| 20260906081540 | 81 | 186 | 0.0 | 2.0 | 0.00 | 0.00 | 0.00 | 87 | 1005.8 |
| 20260906081440 | 81 | 186 | 0.0 | 2.0 | 0.00 | 0.00 | 0.00 | 87 | 1005.8 |
| 20260906081340 | 81 | 186 | 0.0 | 2.0 | 0.00 | 0.00 | 0.00 | 87 | 1005.8 |
| 20260906081241 | 81 | 186 | 0.0 | 2.0 | 0.00 | 0.00 | 0.00 | 87 | 1005.8 |
| 20260906081140 | 81 | 186 | 0.0 | 2.0 | 0.00 | 0.00 | 0.00 | 87 | 1005.8 |
| 20260906081039 | 81 | 186 | 0.0 | 2.0 | 0.00 | 0.00 | 0.00 | 87 | 1005.8 |
| 20260906080940 | 81 | 188 | 0.0 | 1.0 | 0.00 | 0.00 | 0.00 | 87 | 1005.8 |
| 20260906080840 | 81 | 189 | 0.0 | 1.0 | 0.00 | 0.00 | 0.00 | 87 | 1005.8 |
| 20260906080741 | 81 | 189 | 0.0 | 1.0 | 0.00 | 0.00 | 0.00 | 86 | 1005.9 |
| 20260906080640 | 81 | 189 | 0.0 | 1.0 | 0.00 | 0.00 | 0.00 | 86 | 1005.8 |
| 20260906080540 | 81 | 189 | 0.0 | 1.0 | 0.00 | 0.00 | 0.00 | 86 | 1005.8 |
| 20260906080440 | 81 | 189 | 0.0 | 1.0 | 0.00 | 0.00 | 0.00 | 86 | 1005.8 |
| 20260906080339 | 81 | 189 | 0.0 | 1.0 | 0.00 | 0.00 | 0.00 | 86 | 1005.8 |
| 20260906080240 | 81 | 189 | 0.0 | 0.0 | 0.00 | 0.00 | 0.00 | 86 | 1005.7 |
| 20260906080140 | 81 | 189 | 0.0 | 0.0 | 0.00 | 0.00 | 0.00 | 86 | 1005.8 |
| 20260906080040 | 81 | 189 | 0.0 | 0.0 | 0.00 | 0.00 | 0.00 | 86 | 1005.8 |
| 20260906075940 | 81 | 189 | 0.0 | 0.0 | 0.00 | 0.00 | 0.00 | 86 | 1005.8 |
| 20260906075838 | 81 | 189 | 0.0 | 0.0 | 0.00 | 0.00 | 0.00 | 86 | 1005.9 |
| 20260906075738 | 81 | 189 | 0.0 | 0.0 | 0.00 | 0.00 | 0.00 | 86 | 1005.9 |
| 20260906075638 | 81 | 189 | 0.0 | 0.0 | 0.00 | 0.00 | 0.00 | 86 | 1005.9 |
| 20260906075539 | 81 | 189 | 0.0 | 0.0 | 0.00 | 0.00 | 0.00 | 86 | 1005.8 |
| 20260906075438 | 81 | 189 | 0.0 | 0.0 | 0.00 | 0.00 | 0.00 | 86 | 1005.9 |
| 20260906075339 | 81 | 189 | 0.0 | 0.0 | 0.00 | 0.00 | 0.00 | 86 | 1005.9 |
| 20260906075238 | 81 | 189 | 0.0 | 0.0 | 0.00 | 0.00 | 0.00 | 87 | 1005.9 |
| 20260906075139 | 81 | 189 | 0.0 | 0.0 | 0.00 | 0.00 | 0.00 | 87 | 1005.9 |
| 20260906075036 | 81 | 189 | 0.0 | 0.0 | 0.00 | 0.00 | 0.00 | 87 | 1005.9 |
| 20260906074939 | 81 | 189 | 0.0 | 0.0 | 0.00 | 0.00 | 0.00 | 87 | 1005.9 |
| 20260906074839 | 81 | 189 | 0.0 | 0.0 | 0.00 | 0.00 | 0.00 | 87 | 1005.9 |
| 20260906074739 | 81 | 189 | 0.0 | 0.0 | 0.00 | 0.00 | 0.00 | 87 | 1005.9 |
| 20260906074638 | 81 | 195 | 0.0 | 0.0 | 0.00 | 0.00 | 0.00 | 87 | 1006.0 |
| 20260906074537 | 81 | 195 | 0.0 | 0.0 | 0.00 | 0.00 | 0.00 | 87 | 1005.9 |
| 20260906074435 | 81 | 195 | 0.0 | 0.0 | 0.00 | 0.00 | 0.00 | 87 | 1005.9 |
| 20260906074335 | 81 | 195 | 0.0 | 0.0 | 0.00 | 0.00 | 0.00 | 87 | 1005.8 |
| 20260906074235 | 81 | 195 | 0.0 | 0.0 | 0.00 | 0.00 | 0.00 | 87 | 1005.9 |
| 20260906074135 | 81 | 195 | 0.0 | 0.0 | 0.00 | 0.00 | 0.00 | 87 | 1005.9 |
| 20260906074036 | 81 | 195 | 0.0 | 0.0 | 0.00 | 0.00 | 0.00 | 87 | 1005.8 |
| 20260906073935 | 81 | 195 | 0.0 | 0.0 | 0.00 | 0.00 | 0.00 | 87 | 1005.8 |
| 20260906073835 | 81 | 195 | 0.0 | 0.0 | 0.00 | 0.00 | 0.00 | 87 | 1005.9 |
| 20260906073736 | 81 | 196 | 0.0 | 0.0 | 0.00 | 0.00 | 0.00 | 87 | 1005.9 |
| 20260906073634 | 81 | 196 | 0.0 | 0.0 | 0.00 | 0.00 | 0.00 | 87 | 1005.9 |
| 20260906073536 | 81 | 199 | 0.0 | 0.0 | 0.00 | 0.00 | 0.00 | 87 | 1005.9 |
| 20260906073434 | 81 | 199 | 0.0 | 0.0 | 0.00 | 0.00 | 0.00 | 87 | 1005.9 |
| 20260906073335 | 81 | 199 | 0.0 | 0.0 | 0.00 | 0.00 | 0.00 | 87 | 1006.0 |
| 20260906073234 | 81 | 199 | 0.0 | 0.0 | 0.00 | 0.00 | 0.00 | 87 | 1006.0 |
| 20260906073135 | 81 | 199 | 0.0 | 0.0 | 0.00 | 0.00 | 0.00 | 87 | 1006.0 |
| 20260906073035 | 81 | 199 | 0.0 | 0.0 | 0.00 | 0.00 | 0.00 | 87 | 1005.9 |
| 20260906072935 | 81 | 199 | 0.0 | 0.0 | 0.00 | 0.00 | 0.00 | 87 | 1006.0 |
| 20260906072834 | 81 | 199 | 0.0 | 0.0 | 0.00 | 0.00 | 0.00 | 87 | 1006.0 |
| 20260906072735 | 81 | 199 | 0.0 | 0.0 | 0.00 | 0.00 | 0.00 | 87 | 1006.1 |
| 20260906072634 | 81 | 199 | 0.0 | 1.0 | 0.00 | 0.00 | 0.00 | 87 | 1006.1 |
| 20260906072534 | 81 | 199 | 0.0 | 1.0 | 0.00 | 0.00 | 0.00 | 87 | 1006.1 |
| 20260906072435 | 81 | 199 | 0.0 | 1.0 | 0.00 | 0.00 | 0.00 | 87 | 1006.1 |
| 20260906072335 | 81 | 199 | 0.0 | 1.0 | 0.00 | 0.00 | 0.00 | 87 | 1006.1 |
| 20260906072235 | 81 | 199 | 0.0 | 1.0 | 0.00 | 0.00 | 0.00 | 87 | 1006.1 |
| 20260906072135 | 81 | 199 | 0.0 | 1.0 | 0.00 | 0.00 | 0.00 | 87 | 1006.1 |
| 20260906072035 | 81 | 200 | 0.0 | 1.0 | 0.00 | 0.00 | 0.00 | 87 | 1006.2 |
| 20260906071934 | 81 | 200 | 0.0 | 1.0 | 0.00 | 0.00 | 0.00 | 87 | 1006.2 |
| 20260906071834 | 81 | 200 | 0.0 | 1.0 | 0.00 | 0.00 | 0.00 | 87 | 1006.2 |
| 20260906071735 | 81 | 202 | 0.0 | 1.0 | 0.00 | 0.00 | 0.00 | 87 | 1006.2 |
| 20260906071634 | 81 | 202 | 0.0 | 1.0 | 0.00 | 0.00 | 0.00 | 87 | 1006.3 |
| 20260906071534 | 81 | 202 | 0.0 | 1.0 | 0.00 | 0.00 | 0.00 | 87 | 1006.3 |
| 20260906071436 | 81 | 202 | 0.0 | 1.0 | 0.00 | 0.00 | 0.00 | 87 | 1006.3 |
| 20260906071337 | 81 | 202 | 0.0 | 1.0 | 0.00 | 0.00 | 0.00 | 87 | 1006.3 |
| 20260906071234 | 81 | 202 | 0.0 | 1.0 | 0.00 | 0.00 | 0.00 | 87 | 1006.3 |
| 20260906071135 | 82 | 200 | 0.0 | 1.0 | 0.00 | 0.00 | 0.00 | 87 | 1006.2 |
| 20260906071036 | 82 | 200 | 0.0 | 1.0 | 0.00 | 0.00 | 0.00 | 86 | 1006.2 |
| 20260906070934 | 82 | 200 | 0.0 | 1.0 | 0.00 | 0.00 | 0.00 | 87 | 1006.2 |
| 20260906070836 | 82 | 200 | 0.0 | 1.0 | 0.00 | 0.00 | 0.00 | 87 | 1006.3 |
| 20260906070734 | 82 | 200 | 0.0 | 1.0 | 0.00 | 0.00 | 0.00 | 86 | 1006.3 |
| 20260906070634 | 82 | 202 | 0.0 | 1.0 | 0.00 | 0.00 | 0.00 | 86 | 1006.3 |
| 20260906070535 | 82 | 202 | 0.0 | 1.0 | 0.00 | 0.00 | 0.00 | 86 | 1006.3 |
| 20260906070435 | 82 | 202 | 0.0 | 1.0 | 0.00 | 0.00 | 0.00 | 86 | 1006.4 |
| 20260906070335 | 82 | 202 | 0.0 | 1.0 | 0.00 | 0.00 | 0.00 | 86 | 1006.4 |
| 20260906070236 | 82 | 202 | 0.0 | 1.0 | 0.00 | 0.00 | 0.00 | 86 | 1006.4 |
| 20260906070136 | 82 | 202 | 0.0 | 1.0 | 0.00 | 0.00 | 0.00 | 86 | 1006.4 |
| 20260906070035 | 82 | 202 | 0.0 | 1.0 | 0.00 | 0.00 | 0.00 | 86 | 1006.4 |
| 20260906065934 | 82 | 202 | 0.0 | 0.0 | 0.00 | 0.00 | 0.00 | 86 | 1006.4 |
| 20260906065831 | 82 | 202 | 0.0 | 0.0 | 0.00 | 0.00 | 0.00 | 86 | 1006.4 |
| 20260906065732 | 82 | 202 | 0.0 | 0.0 | 0.00 | 0.00 | 0.00 | 86 | 1006.3 |
| 20260906065632 | 82 | 202 | 0.0 | 0.0 | 0.00 | 0.00 | 0.00 | 86 | 1006.4 |
| 20260906065531 | 82 | 202 | 0.0 | 0.0 | 0.00 | 0.00 | 0.00 | 86 | 1006.4 |
| 20260906065431 | 82 | 203 | 0.0 | 1.0 | 0.00 | 0.00 | 0.00 | 86 | 1006.4 |
| 20260906065332 | 82 | 203 | 0.0 | 1.0 | 0.00 | 0.00 | 0.00 | 86 | 1006.4 |
| 20260906065233 | 82 | 203 | 0.0 | 2.0 | 0.00 | 0.00 | 0.00 | 86 | 1006.4 |
| 20260906065131 | 82 | 203 | 0.0 | 2.0 | 0.00 | 0.00 | 0.00 | 86 | 1006.4 |
| 20260906065034 | 82 | 203 | 0.0 | 2.0 | 0.00 | 0.00 | 0.00 | 86 | 1006.3 |
| 20260906064932 | 82 | 203 | 0.0 | 2.0 | 0.00 | 0.00 | 0.00 | 86 | 1006.3 |
| 20260906064831 | 82 | 203 | 0.0 | 2.0 | 0.00 | 0.00 | 0.00 | 86 | 1006.4 |
| 20260906064732 | 82 | 203 | 0.0 | 2.0 | 0.00 | 0.00 | 0.00 | 86 | 1006.4 |
| 20260906064633 | 82 | 203 | 0.0 | 2.0 | 0.00 | 0.00 | 0.00 | 86 | 1006.4 |
| 20260906064533 | 82 | 203 | 0.0 | 2.0 | 0.00 | 0.00 | 0.00 | 86 | 1006.4 |
| 20260906064433 | 82 | 202 | 0.0 | 2.0 | 0.00 | 0.00 | 0.00 | 86 | 1006.4 |
| 20260906064331 | 82 | 202 | 0.0 | 2.0 | 0.00 | 0.00 | 0.00 | 86 | 1006.5 |
| 20260906064233 | 82 | 202 | 0.0 | 2.0 | 0.00 | 0.00 | 0.00 | 86 | 1006.5 |
| 20260906064131 | 82 | 200 | 0.0 | 1.0 | 0.00 | 0.00 | 0.00 | 86 | 1006.4 |
| 20260906064032 | 82 | 185 | 0.0 | 1.0 | 0.00 | 0.00 | 0.00 | 86 | 1006.5 |
| 20260906063933 | 82 | 185 | 0.0 | 1.0 | 0.00 | 0.00 | 0.00 | 86 | 1006.5 |
| 20260906063832 | 82 | 185 | 0.0 | 1.0 | 0.00 | 0.00 | 0.00 | 86 | 1006.5 |
| 20260906063732 | 82 | 185 | 0.0 | 1.0 | 0.00 | 0.00 | 0.00 | 86 | 1006.5 |
| 20260906063631 | 82 | 185 | 0.0 | 1.0 | 0.00 | 0.00 | 0.00 | 86 | 1006.5 |
| 20260906063533 | 82 | 185 | 0.0 | 1.0 | 0.00 | 0.00 | 0.00 | 85 | 1006.5 |
| 20260906063432 | 82 | 183 | 0.0 | 1.0 | 0.00 | 0.00 | 0.00 | 85 | 1006.5 |
| 20260906063332 | 82 | 183 | 0.0 | 1.0 | 0.00 | 0.00 | 0.00 | 85 | 1006.5 |
| 20260906063232 | 82 | 183 | 0.0 | 1.0 | 0.00 | 0.00 | 0.00 | 85 | 1006.4 |
| 20260906063131 | 82 | 183 | 0.0 | 0.0 | 0.00 | 0.00 | 0.00 | 85 | 1006.5 |
| 20260906063032 | 82 | 183 | 0.0 | 0.0 | 0.00 | 0.00 | 0.00 | 85 | 1006.5 |
| 20260906062932 | 82 | 183 | 0.0 | 1.0 | 0.00 | 0.00 | 0.00 | 85 | 1006.5 |
| 20260906062832 | 82 | 183 | 0.0 | 1.0 | 0.00 | 0.00 | 0.00 | 85 | 1006.5 |
| 20260906062733 | 82 | 183 | 0.0 | 1.0 | 0.00 | 0.00 | 0.00 | 85 | 1006.5 |
| 20260906062633 | 82 | 182 | 0.0 | 3.0 | 0.00 | 0.00 | 0.00 | 85 | 1006.5 |
| 20260906062532 | 82 | 178 | 0.0 | 3.0 | 0.00 | 0.00 | 0.00 | 85 | 1006.5 |
| 20260906062432 | 82 | 178 | 0.0 | 3.0 | 0.00 | 0.00 | 0.00 | 85 | 1006.5 |
| 20260906062333 | 82 | 178 | 0.0 | 3.0 | 0.00 | 0.00 | 0.00 | 85 | 1006.5 |
| 20260906062231 | 82 | 178 | 0.0 | 3.0 | 0.00 | 0.00 | 0.00 | 85 | 1006.4 |
| 20260906062104 | 82 | 178 | 0.0 | 3.0 | 0.00 | 0.00 | 0.00 | 85 | 1006.4 |
| 20260906062004 | 82 | 178 | 0.0 | 3.0 | 0.00 | 0.00 | 0.00 | 85 | 1006.5 |
| 20260906061903 | 82 | 178 | 1.0 | 3.0 | 0.00 | 0.00 | 0.00 | 85 | 1006.5 |
| 20260906061804 | 82 | 176 | 0.0 | 3.0 | 0.00 | 0.00 | 0.00 | 85 | 1006.5 |
| 20260906061704 | 82 | 175 | 0.0 | 3.0 | 0.00 | 0.00 | 0.00 | 85 | 1006.5 |
| 20260906061604 | 82 | 173 | 0.0 | 3.0 | 0.00 | 0.00 | 0.00 | 85 | 1006.5 |
| 20260906061504 | 82 | 173 | 0.0 | 3.0 | 0.00 | 0.00 | 0.00 | 85 | 1006.5 |
| 20260906061404 | 82 | 189 | 0.0 | 3.0 | 0.00 | 0.00 | 0.00 | 85 | 1006.4 |
| 20260906061302 | 82 | 185 | 0.0 | 3.0 | 0.00 | 0.00 | 0.00 | 85 | 1006.4 |
| 20260906061203 | 82 | 183 | 0.0 | 3.0 | 0.00 | 0.00 | 0.00 | 85 | 1006.4 |
| 20260906061102 | 82 | 183 | 0.0 | 3.0 | 0.00 | 0.00 | 0.00 | 85 | 1006.3 |
| 20260906061005 | 82 | 182 | 1.0 | 3.0 | 0.00 | 0.00 | 0.00 | 85 | 1006.3 |
| 20260906060903 | 82 | 182 | 1.0 | 3.0 | 0.00 | 0.00 | 0.00 | 85 | 1006.3 |
| 20260906060804 | 82 | 176 | 1.0 | 3.0 | 0.00 | 0.00 | 0.00 | 85 | 1006.3 |
| 20260906060703 | 82 | 162 | 0.0 | 4.0 | 0.00 | 0.00 | 0.00 | 85 | 1006.3 |
| 20260906060603 | 82 | 162 | 1.0 | 4.0 | 0.00 | 0.00 | 0.00 | 84 | 1006.4 |
| 20260906060504 | 82 | 162 | 1.0 | 4.0 | 0.00 | 0.00 | 0.00 | 84 | 1006.4 |
| 20260906060402 | 82 | 173 | 1.0 | 4.0 | 0.00 | 0.00 | 0.00 | 84 | 1006.3 |
| 20260906060302 | 82 | 180 | 1.0 | 4.0 | 0.00 | 0.00 | 0.00 | 84 | 1006.3 |
| 20260906060204 | 82 | 142 | 0.0 | 4.0 | 0.00 | 0.00 | 0.00 | 84 | 1006.3 |
| 20260906060104 | 82 | 141 | 1.0 | 4.0 | 0.00 | 0.00 | 0.00 | 84 | 1006.4 |
| 20260906060004 | 82 | 141 | 2.0 | 4.0 | 0.00 | 0.00 | 0.00 | 84 | 1006.4 |
| 20260906055904 | 82 | 173 | 2.0 | 4.0 | 0.00 | 0.00 | 0.00 | 84 | 1006.4 |
| 20260906055803 | 82 | 144 | 1.0 | 4.0 | 0.00 | 0.00 | 0.00 | 84 | 1006.4 |
| 20260906055702 | 82 | 159 | 0.0 | 3.0 | 0.00 | 0.00 | 0.00 | 84 | 1006.4 |
| 20260906055602 | 82 | 159 | 0.0 | 3.0 | 0.00 | 0.00 | 0.00 | 84 | 1006.4 |
| 20260906055503 | 82 | 159 | 0.0 | 3.0 | 0.00 | 0.00 | 0.00 | 84 | 1006.4 |
| 20260906055403 | 82 | 157 | 1.0 | 3.0 | 0.00 | 0.00 | 0.00 | 84 | 1006.4 |
| 20260906055306 | 82 | 157 | 1.0 | 3.0 | 0.00 | 0.00 | 0.00 | 84 | 1006.3 |
| 20260906055204 | 82 | 155 | 0.0 | 3.0 | 0.00 | 0.00 | 0.00 | 84 | 1006.4 |
| 20260906055103 | 82 | 155 | 0.0 | 3.0 | 0.00 | 0.00 | 0.00 | 84 | 1006.3 |
| 20260906055003 | 83 | 155 | 0.0 | 3.0 | 0.00 | 0.00 | 0.00 | 84 | 1006.3 |
| 20260906054902 | 83 | 155 | 0.0 | 3.0 | 0.00 | 0.00 | 0.00 | 84 | 1006.3 |
| 20260906054804 | 83 | 155 | 1.0 | 3.0 | 0.00 | 0.00 | 0.00 | 84 | 1006.3 |
| 20260906054703 | 83 | 155 | 1.0 | 3.0 | 0.00 | 0.00 | 0.00 | 84 | 1006.3 |
| 20260906054603 | 83 | 155 | 1.0 | 3.0 | 0.00 | 0.00 | 0.00 | 84 | 1006.3 |
| 20260906054503 | 82 | 158 | 1.0 | 3.0 | 0.00 | 0.00 | 0.00 | 84 | 1006.3 |
| 20260906054404 | 83 | 176 | 0.0 | 3.0 | 0.00 | 0.00 | 0.00 | 84 | 1006.3 |
| 20260906054303 | 83 | 169 | 0.0 | 2.0 | 0.00 | 0.00 | 0.00 | 84 | 1006.3 |
| 20260906054202 | 83 | 169 | 0.0 | 3.0 | 0.00 | 0.00 | 0.00 | 84 | 1006.4 |
| 20260906054102 | 83 | 169 | 0.0 | 3.0 | 0.00 | 0.00 | 0.00 | 84 | 1006.4 |
| 20260906054004 | 83 | 172 | 0.0 | 3.0 | 0.00 | 0.00 | 0.00 | 84 | 1006.4 |
| 20260906053902 | 83 | 173 | 0.0 | 3.0 | 0.00 | 0.00 | 0.00 | 84 | 1006.4 |
| 20260906053803 | 83 | 173 | 0.0 | 3.0 | 0.00 | 0.00 | 0.00 | 84 | 1006.3 |
| 20260906053702 | 83 | 173 | 0.0 | 3.0 | 0.00 | 0.00 | 0.00 | 84 | 1006.4 |
| 20260906053603 | 83 | 176 | 0.0 | 4.0 | 0.00 | 0.00 | 0.00 | 84 | 1006.4 |
| 20260906053503 | 83 | 176 | 0.0 | 4.0 | 0.00 | 0.00 | 0.00 | 84 | 1006.4 |
| 20260906053403 | 83 | 176 | 1.0 | 4.0 | 0.00 | 0.00 | 0.00 | 84 | 1006.4 |
| 20260906053303 | 83 | 176 | 0.0 | 4.0 | 0.00 | 0.00 | 0.00 | 84 | 1006.4 |
| 20260906053205 | 83 | 172 | 0.0 | 4.0 | 0.00 | 0.00 | 0.00 | 84 | 1006.5 |
| 20260906053103 | 83 | 173 | 0.0 | 4.0 | 0.00 | 0.00 | 0.00 | 84 | 1006.4 |
| 20260906053003 | 83 | 172 | 0.0 | 4.0 | 0.00 | 0.00 | 0.00 | 84 | 1006.4 |
| 20260906052903 | 83 | 172 | 1.0 | 4.0 | 0.00 | 0.00 | 0.00 | 84 | 1006.4 |
| 20260906052805 | 83 | 172 | 1.0 | 4.0 | 0.00 | 0.00 | 0.00 | 84 | 1006.4 |
| 20260906052702 | 83 | 178 | 1.0 | 4.0 | 0.00 | 0.00 | 0.00 | 84 | 1006.4 |
| 20260906052604 | 83 | 195 | 2.0 | 2.0 | 0.00 | 0.00 | 0.00 | 84 | 1006.4 |
| 20260906052504 | 83 | 164 | 0.0 | 0.0 | 0.00 | 0.00 | 0.00 | 83 | 1006.5 |
| 20260906052403 | 83 | 164 | 0.0 | 2.0 | 0.00 | 0.00 | 0.00 | 83 | 1006.5 |
| 20260906052305 | 83 | 164 | 0.0 | 2.0 | 0.00 | 0.00 | 0.00 | 83 | 1006.3 |
| 20260906052203 | 83 | 164 | 0.0 | 2.0 | 0.00 | 0.00 | 0.00 | 83 | 1006.2 |
| 20260906052103 | 83 | 164 | 0.0 | 3.0 | 0.00 | 0.00 | 0.00 | 83 | 1006.3 |
| 20260906052004 | 83 | 164 | 0.0 | 3.0 | 0.00 | 0.00 | 0.00 | 83 | 1006.3 |
| 20260906051904 | 83 | 164 | 0.0 | 3.0 | 0.00 | 0.00 | 0.00 | 83 | 1006.3 |
| 20260906051804 | 83 | 164 | 0.0 | 3.0 | 0.00 | 0.00 | 0.00 | 83 | 1006.4 |
| 20260906051703 | 83 | 164 | 0.0 | 3.0 | 0.00 | 0.00 | 0.00 | 83 | 1006.3 |
| 20260906051602 | 83 | 164 | 0.0 | 3.0 | 0.00 | 0.00 | 0.00 | 83 | 1006.4 |
| 20260906051503 | 83 | 164 | 0.0 | 3.0 | 0.00 | 0.00 | 0.00 | 83 | 1006.4 |
| 20260906051404 | 83 | 162 | 0.0 | 3.0 | 0.00 | 0.00 | 0.00 | 83 | 1006.4 |
| 20260906051303 | 83 | 164 | 2.0 | 3.0 | 0.00 | 0.00 | 0.00 | 83 | 1006.4 |
| 20260906051203 | 83 | 164 | 1.0 | 3.0 | 0.00 | 0.00 | 0.00 | 83 | 1006.5 |
| 20260906051103 | 83 | 152 | 0.0 | 2.0 | 0.00 | 0.00 | 0.00 | 83 | 1006.5 |
| 20260906051003 | 83 | 154 | 0.0 | 2.0 | 0.00 | 0.00 | 0.00 | 83 | 1006.4 |
| 20260906050903 | 83 | 154 | 0.0 | 2.0 | 0.00 | 0.00 | 0.00 | 83 | 1006.4 |
| 20260906050804 | 83 | 161 | 0.0 | 3.0 | 0.00 | 0.00 | 0.00 | 83 | 1006.4 |
| 20260906050703 | 83 | 161 | 0.0 | 3.0 | 0.00 | 0.00 | 0.00 | 83 | 1006.4 |
| 20260906050602 | 83 | 166 | 0.0 | 3.0 | 0.00 | 0.00 | 0.00 | 83 | 1006.4 |
| 20260906050503 | 83 | 151 | 0.0 | 3.0 | 0.00 | 0.00 | 0.00 | 83 | 1006.5 |
| 20260906050403 | 83 | 148 | 0.0 | 3.0 | 0.00 | 0.00 | 0.00 | 83 | 1006.4 |
| 20260906050304 | 83 | 148 | 1.0 | 3.0 | 0.00 | 0.00 | 0.00 | 83 | 1006.4 |
| 20260906050203 | 83 | 148 | 1.0 | 3.0 | 0.00 | 0.00 | 0.00 | 83 | 1006.5 |
| 20260906050104 | 83 | 148 | 2.0 | 3.0 | 0.00 | 0.00 | 0.00 | 83 | 1006.5 |
| 20260906050004 | 83 | 179 | 2.0 | 3.0 | 0.00 | 0.00 | 0.00 | 83 | 1006.5 |
| 20260906045903 | 83 | 186 | 2.0 | 3.0 | 0.00 | 0.00 | 0.00 | 83 | 1006.4 |
| 20260906045802 | 83 | 165 | 1.0 | 3.0 | 0.00 | 0.00 | 0.00 | 83 | 1006.4 |
| 20260906045705 | 83 | 149 | 1.0 | 3.0 | 0.00 | 0.00 | 0.00 | 83 | 1006.5 |
| 20260906045603 | 83 | 149 | 1.0 | 3.0 | 0.00 | 0.00 | 0.00 | 83 | 1006.5 |
| 20260906045504 | 83 | 144 | 1.0 | 4.0 | 0.00 | 0.00 | 0.00 | 83 | 1006.5 |
| 20260906045404 | 83 | 175 | 1.0 | 4.0 | 0.00 | 0.00 | 0.00 | 83 | 1006.4 |
| 20260906045305 | 83 | 165 | 1.0 | 4.0 | 0.00 | 0.00 | 0.00 | 83 | 1006.4 |
| 20260906045204 | 83 | 204 | 1.0 | 4.0 | 0.00 | 0.00 | 0.00 | 83 | 1006.5 |
| 20260906045102 | 83 | 216 | 1.0 | 4.0 | 0.00 | 0.00 | 0.00 | 83 | 1006.4 |
| 20260906045006 | 83 | 161 | 2.0 | 5.0 | 0.00 | 0.00 | 0.00 | 83 | 1006.5 |
| 20260906044904 | 83 | 186 | 2.0 | 5.0 | 0.00 | 0.00 | 0.00 | 83 | 1006.5 |
| 20260906044803 | 83 | 192 | 2.0 | 5.0 | 0.00 | 0.00 | 0.00 | 82 | 1006.5 |
| 20260906044704 | 83 | 192 | 2.0 | 5.0 | 0.00 | 0.00 | 0.00 | 82 | 1006.5 |
| 20260906044603 | 83 | 158 | 2.0 | 5.0 | 0.00 | 0.00 | 0.00 | 82 | 1006.5 |
| 20260906044504 | 83 | 182 | 1.0 | 5.0 | 0.00 | 0.00 | 0.00 | 82 | 1006.5 |
| 20260906044404 | 83 | 178 | 0.0 | 5.0 | 0.00 | 0.00 | 0.00 | 82 | 1006.5 |
| 20260906044303 | 83 | 178 | 1.0 | 5.0 | 0.00 | 0.00 | 0.00 | 82 | 1006.5 |
| 20260906044204 | 83 | 173 | 2.0 | 5.0 | 0.00 | 0.00 | 0.00 | 82 | 1006.6 |
| 20260906044101 | 83 | 176 | 2.0 | 5.0 | 0.00 | 0.00 | 0.00 | 82 | 1006.6 |
| 20260906044003 | 83 | 179 | 1.0 | 5.0 | 0.00 | 0.00 | 0.00 | 82 | 1006.7 |
| 20260906043903 | 83 | 172 | 1.0 | 5.0 | 0.00 | 0.00 | 0.00 | 82 | 1006.6 |
| 20260906043803 | 83 | 135 | 1.0 | 5.0 | 0.00 | 0.00 | 0.00 | 82 | 1006.6 |
| 20260906043703 | 83 | 183 | 0.0 | 4.0 | 0.00 | 0.00 | 0.00 | 82 | 1006.6 |
| 20260906043604 | 83 | 183 | 1.0 | 4.0 | 0.00 | 0.00 | 0.00 | 82 | 1006.5 |
| 20260906043504 | 83 | 185 | 0.0 | 4.0 | 0.00 | 0.00 | 0.00 | 82 | 1006.5 |
| 20260906043402 | 83 | 186 | 0.0 | 4.0 | 0.00 | 0.00 | 0.00 | 82 | 1006.5 |
| 20260906043303 | 83 | 186 | 1.0 | 4.0 | 0.00 | 0.00 | 0.00 | 82 | 1006.5 |
| 20260906043204 | 83 | 188 | 1.0 | 4.0 | 0.00 | 0.00 | 0.00 | 82 | 1006.5 |
| 20260906043103 | 83 | 158 | 1.0 | 4.0 | 0.00 | 0.00 | 0.00 | 82 | 1006.5 |
| 20260906043003 | 83 | 151 | 1.0 | 4.0 | 0.00 | 0.00 | 0.00 | 82 | 1006.5 |
| 20260906042903 | 83 | 149 | 2.0 | 4.0 | 0.00 | 0.00 | 0.00 | 82 | 1006.5 |
| 20260906042804 | 83 | 145 | 3.0 | 4.0 | 0.00 | 0.00 | 0.00 | 82 | 1006.4 |
| 20260906042703 | 83 | 154 | 0.0 | 2.0 | 0.00 | 0.00 | 0.00 | 82 | 1006.5 |
| 20260906042604 | 83 | 161 | 0.0 | 0.0 | 0.00 | 0.00 | 0.00 | 82 | 1006.4 |
| 20260906042504 | 83 | 159 | 0.0 | 0.0 | 0.00 | 0.00 | 0.00 | 82 | 1006.5 |
| 20260906042403 | 0 | 148 | 0.0 | 0.0 | 0.00 | 0.00 | 0.00 | 1006.5 | |
| 20260906042306 | 83 | 148 | 0.0 | 1.0 | 0.00 | 0.00 | 0.00 | 82 | 1006.5 |
| 20260906042203 | 83 | 148 | 0.0 | 2.0 | 0.00 | 0.00 | 0.00 | 82 | 1006.5 |
| 20260906042103 | 83 | 148 | 0.0 | 2.0 | 0.00 | 0.00 | 0.00 | 82 | 1006.4 |
| 20260906042005 | 83 | 148 | 0.0 | 2.0 | 0.00 | 0.00 | 0.00 | 82 | 1006.5 |
| 20260906041904 | 83 | 148 | 0.0 | 3.0 | 0.00 | 0.00 | 0.00 | 82 | 1006.6 |
| 20260906041804 | 83 | 148 | 0.0 | 3.0 | 0.00 | 0.00 | 0.00 | 82 | 1006.5 |
| 20260906041703 | 83 | 148 | 0.0 | 3.0 | 0.00 | 0.00 | 0.00 | 82 | 1006.5 |
| 20260906041603 | 83 | 148 | 0.0 | 3.0 | 0.00 | 0.00 | 0.00 | 82 | 1006.6 |
| 20260906041503 | 83 | 148 | 0.0 | 3.0 | 0.00 | 0.00 | 0.00 | 82 | 1006.6 |
| 20260906041403 | 83 | 148 | 0.0 | 4.0 | 0.00 | 0.00 | 0.00 | 82 | 1006.6 |
| 20260906041304 | 83 | 149 | 1.0 | 4.0 | 0.00 | 0.00 | 0.00 | 82 | 1006.6 |
| 20260906041202 | 83 | 147 | 0.0 | 5.0 | 0.00 | 0.00 | 0.00 | 82 | 1006.6 |
| 20260906041104 | 83 | 154 | 0.0 | 5.0 | 0.00 | 0.00 | 0.00 | 81 | 1006.7 |
| 20260906040952 | 83 | 154 | 1.0 | 5.0 | 0.00 | 0.00 | 0.00 | 82 | 1006.6 |
| 20260906040839 | 83 | 158 | 1.0 | 5.0 | 0.00 | 0.00 | 0.00 | 82 | 1006.6 |
| 20260906040730 | 83 | 155 | 1.0 | 5.0 | 0.00 | 0.00 | 0.00 | 81 | 1006.6 |
| 20260906040633 | 83 | 161 | 2.0 | 5.0 | 0.00 | 0.00 | 0.00 | 81 | 1006.6 |
| 20260906040532 | 83 | 164 | 2.0 | 5.0 | 0.00 | 0.00 | 0.00 | 81 | 1006.6 |
| 20260906040432 | 83 | 124 | 3.0 | 5.0 | 0.00 | 0.00 | 0.00 | 81 | 1006.6 |
| 20260906040333 | 83 | 149 | 3.0 | 5.0 | 0.00 | 0.00 | 0.00 | 81 | 1006.6 |
| 20260906040232 | 83 | 161 | 2.0 | 5.0 | 0.00 | 0.00 | 0.00 | 81 | 1006.6 |
| 20260906040129 | 83 | 142 | 2.0 | 4.0 | 0.00 | 0.00 | 0.00 | 81 | 1006.5 |
| 20260906040028 | 83 | 166 | 1.0 | 4.0 | 0.00 | 0.00 | 0.00 | 82 | 1006.6 |
| 20260906035925 | 83 | 141 | 1.0 | 4.0 | 0.00 | 0.00 | 0.00 | 82 | 1006.7 |
| 20260906035827 | 83 | 147 | 2.0 | 4.0 | 0.00 | 0.00 | 0.00 | 81 | 1006.6 |
| 20260906035725 | 83 | 148 | 2.0 | 4.0 | 0.00 | 0.00 | 0.00 | 81 | 1006.7 |
| 20260906035625 | 83 | 152 | 2.0 | 4.0 | 0.00 | 0.00 | 0.00 | 81 | 1006.6 |
| 20260906035526 | 83 | 134 | 2.0 | 4.0 | 0.00 | 0.00 | 0.00 | 81 | 1006.7 |
| 20260906035425 | 83 | 159 | 2.0 | 4.0 | 0.00 | 0.00 | 0.00 | 81 | 1006.6 |
| 20260906035324 | 83 | 151 | 3.0 | 4.0 | 0.00 | 0.00 | 0.00 | 81 | 1006.6 |
| 20260906035226 | 83 | 140 | 2.0 | 4.0 | 0.00 | 0.00 | 0.00 | 81 | 1006.6 |
| 20260906035126 | 83 | 149 | 0.0 | 4.0 | 0.00 | 0.00 | 0.00 | 81 | 1006.7 |
| 20260906035026 | 83 | 152 | 1.0 | 4.0 | 0.00 | 0.00 | 0.00 | 81 | 1006.6 |
| 20260906034925 | 83 | 152 | 2.0 | 4.0 | 0.00 | 0.00 | 0.00 | 81 | 1006.6 |
| 20260906034826 | 83 | 118 | 2.0 | 4.0 | 0.00 | 0.00 | 0.00 | 81 | 1006.6 |
| 20260906034724 | 83 | 141 | 1.0 | 4.0 | 0.00 | 0.00 | 0.00 | 81 | 1006.6 |
| 20260906034625 | 83 | 138 | 2.0 | 4.0 | 0.00 | 0.00 | 0.00 | 81 | 1006.6 |
| 20260906034525 | 83 | 134 | 2.0 | 4.0 | 0.00 | 0.00 | 0.00 | 81 | 1006.6 |
| 20260906034425 | 83 | 161 | 1.0 | 3.0 | 0.00 | 0.00 | 0.00 | 81 | 1006.6 |
| 20260906034325 | 83 | 166 | 1.0 | 3.0 | 0.00 | 0.00 | 0.00 | 81 | 1006.6 |
| 20260906034225 | 83 | 157 | 1.0 | 3.0 | 0.00 | 0.00 | 0.00 | 81 | 1006.6 |
| 20260906034125 | 83 | 148 | 1.0 | 3.0 | 0.00 | 0.00 | 0.00 | 81 | 1006.6 |
| 20260906034026 | 83 | 128 | 0.0 | 3.0 | 0.00 | 0.00 | 0.00 | 81 | 1006.6 |
| 20260906033925 | 83 | 128 | 0.0 | 3.0 | 0.00 | 0.00 | 0.00 | 81 | 1006.6 |
| 20260906033824 | 83 | 128 | 0.0 | 3.0 | 0.00 | 0.00 | 0.00 | 81 | 1006.6 |
| 20260906033724 | 83 | 127 | 1.0 | 3.0 | 0.00 | 0.00 | 0.00 | 81 | 1006.6 |
| 20260906033625 | 83 | 128 | 1.0 | 3.0 | 0.00 | 0.00 | 0.00 | 81 | 1006.6 |
| 20260906033525 | 83 | 128 | 1.0 | 3.0 | 0.00 | 0.00 | 0.00 | 81 | 1006.6 |
| 20260906033425 | 83 | 128 | 1.0 | 3.0 | 0.00 | 0.00 | 0.00 | 82 | 1006.6 |
| 20260906033326 | 83 | 127 | 2.0 | 3.0 | 0.00 | 0.00 | 0.00 | 82 | 1006.7 |
| 20260906033224 | 83 | 128 | 2.0 | 3.0 | 0.00 | 0.00 | 0.00 | 81 | 1006.6 |
| 20260906033126 | 83 | 128 | 1.0 | 3.0 | 0.00 | 0.00 | 0.00 | 81 | 1006.6 |
| 20260906033024 | 83 | 128 | 1.0 | 3.0 | 0.00 | 0.00 | 0.00 | 81 | 1006.6 |
| 20260906032926 | 83 | 130 | 1.0 | 3.0 | 0.00 | 0.00 | 0.00 | 81 | 1006.6 |
| 20260906032820 | 83 | 130 | 2.0 | 3.0 | 0.00 | 0.00 | 0.00 | 81 | 1006.6 |
| 20260906032719 | 83 | 130 | 1.0 | 3.0 | 0.00 | 0.00 | 0.00 | 81 | 1006.5 |
| 20260906032613 | 83 | 130 | 1.0 | 3.0 | 0.00 | 0.00 | 0.00 | 81 | 1006.5 |
| 20260906032505 | 83 | 130 | 1.0 | 3.0 | 0.00 | 0.00 | 0.00 | 81 | 1006.6 |
| 20260906032404 | 83 | 131 | 1.0 | 3.0 | 0.00 | 0.00 | 0.00 | 81 | 1006.6 |
| 20260906032306 | 83 | 131 | 1.0 | 3.0 | 0.00 | 0.00 | 0.00 | 81 | 1006.6 |
| 20260906032205 | 83 | 131 | 1.0 | 3.0 | 0.00 | 0.00 | 0.00 | 81 | 1006.6 |
| 20260906032102 | 83 | 127 | 1.0 | 2.0 | 0.00 | 0.00 | 0.00 | 81 | 1006.6 |
| 20260906032005 | 83 | 127 | 1.0 | 2.0 | 0.00 | 0.00 | 0.00 | 81 | 1006.6 |
| 20260906031904 | 83 | 127 | 0.0 | 2.0 | 0.00 | 0.00 | 0.00 | 81 | 1006.6 |
| 20260906031803 | 83 | 127 | 0.0 | 3.0 | 0.00 | 0.00 | 0.00 | 81 | 1006.6 |
| 20260906031705 | 83 | 127 | 1.0 | 3.0 | 0.00 | 0.00 | 0.00 | 81 | 1006.6 |
| 20260906031603 | 83 | 127 | 1.0 | 3.0 | 0.00 | 0.00 | 0.00 | 81 | 1006.6 |
| 20260906031504 | 83 | 127 | 0.0 | 3.0 | 0.00 | 0.00 | 0.00 | 81 | 1006.5 |
| 20260906031402 | 83 | 127 | 0.0 | 3.0 | 0.00 | 0.00 | 0.00 | 81 | 1006.5 |
| 20260906031303 | 83 | 127 | 1.0 | 4.0 | 0.00 | 0.00 | 0.00 | 81 | 1006.5 |
| 20260906031204 | 83 | 127 | 1.0 | 4.0 | 0.00 | 0.00 | 0.00 | 81 | 1006.5 |
| 20260906031103 | 83 | 127 | 0.0 | 4.0 | 0.00 | 0.00 | 0.00 | 81 | 1006.5 |
| 20260906031003 | 84 | 125 | 1.0 | 4.0 | 0.00 | 0.00 | 0.00 | 81 | 1006.6 |
| 20260906030902 | 84 | 125 | 1.0 | 4.0 | 0.00 | 0.00 | 0.00 | 81 | 1006.6 |
| 20260906030804 | 84 | 121 | 1.0 | 4.0 | 0.00 | 0.00 | 0.00 | 81 | 1006.5 |
| 20260906030704 | 84 | 121 | 2.0 | 4.0 | 0.00 | 0.00 | 0.00 | 81 | 1006.5 |
| 20260906030604 | 84 | 123 | 1.0 | 4.0 | 0.00 | 0.00 | 0.00 | 81 | 1006.5 |
| 20260906030503 | 84 | 118 | 2.0 | 4.0 | 0.00 | 0.00 | 0.00 | 81 | 1006.5 |
| 20260906030403 | 84 | 118 | 2.0 | 4.0 | 0.00 | 0.00 | 0.00 | 81 | 1006.5 |
| 20260906030303 | 84 | 123 | 2.0 | 4.0 | 0.00 | 0.00 | 0.00 | 81 | 1006.5 |
| 20260906030203 | 84 | 113 | 2.0 | 4.0 | 0.00 | 0.00 | 0.00 | 81 | 1006.5 |
| 20260906030003 | 84 | 138 | 0.0 | 4.0 | 0.00 | 0.00 | 0.00 | 81 | 1006.5 |
| 20260906025903 | 84 | 138 | 1.0 | 4.0 | 0.00 | 0.00 | 0.00 | 81 | 1006.5 |
| 20260906025802 | 84 | 138 | 1.0 | 5.0 | 0.00 | 0.00 | 0.00 | 81 | 1006.5 |
| 20260906025703 | 84 | 140 | 2.0 | 5.0 | 0.00 | 0.00 | 0.00 | 81 | 1006.4 |
| 20260906025604 | 84 | 113 | 1.0 | 5.0 | 0.00 | 0.00 | 0.00 | 81 | 1006.4 |
| 20260906025502 | 84 | 110 | 1.0 | 5.0 | 0.00 | 0.00 | 0.00 | 80 | 1006.4 |
| 20260906025403 | 84 | 110 | 2.0 | 5.0 | 0.00 | 0.00 | 0.00 | 80 | 1006.3 |
| 20260906025306 | 84 | 141 | 2.0 | 5.0 | 0.00 | 0.00 | 0.00 | 80 | 1006.3 |
| 20260906025203 | 84 | 138 | 2.0 | 5.0 | 0.00 | 0.00 | 0.00 | 80 | 1006.3 |
| 20260906025102 | 84 | 138 | 3.0 | 5.0 | 0.00 | 0.00 | 0.00 | 80 | 1006.3 |
| 20260906025004 | 84 | 120 | 4.0 | 5.0 | 0.00 | 0.00 | 0.00 | 80 | 1006.3 |
| 20260906024904 | 84 | 121 | 3.0 | 5.0 | 0.00 | 0.00 | 0.00 | 80 | 1006.3 |
| 20260906024804 | 84 | 137 | 2.0 | 4.0 | 0.00 | 0.00 | 0.00 | 80 | 1006.3 |
| 20260906024704 | 84 | 120 | 2.0 | 4.0 | 0.00 | 0.00 | 0.00 | 80 | 1006.3 |
| 20260906024603 | 84 | 120 | 3.0 | 4.0 | 0.00 | 0.00 | 0.00 | 80 | 1006.3 |
| 20260906024503 | 84 | 117 | 3.0 | 4.0 | 0.00 | 0.00 | 0.00 | 80 | 1006.2 |
| 20260906024405 | 84 | 133 | 2.0 | 4.0 | 0.00 | 0.00 | 0.00 | 80 | 1006.3 |
| 20260906024303 | 84 | 125 | 2.0 | 4.0 | 0.00 | 0.00 | 0.00 | 80 | 1006.3 |
| 20260906024203 | 84 | 123 | 3.0 | 4.0 | 0.00 | 0.00 | 0.00 | 80 | 1006.3 |
| 20260906024103 | 84 | 131 | 2.0 | 5.0 | 0.00 | 0.00 | 0.00 | 80 | 1006.3 |
| 20260906024004 | 84 | 137 | 2.0 | 5.0 | 0.00 | 0.00 | 0.00 | 80 | 1006.2 |
| 20260906023904 | 84 | 111 | 3.0 | 6.0 | 0.00 | 0.00 | 0.00 | 80 | 1006.2 |
| 20260906023803 | 84 | 104 | 3.0 | 6.0 | 0.00 | 0.00 | 0.00 | 80 | 1006.1 |
| 20260906023703 | 84 | 131 | 2.0 | 6.0 | 0.00 | 0.00 | 0.00 | 80 | 1006.2 |
| 20260906023603 | 84 | 137 | 1.0 | 7.0 | 0.00 | 0.00 | 0.00 | 80 | 1006.1 |
| 20260906023503 | 84 | 125 | 1.0 | 7.0 | 0.00 | 0.00 | 0.00 | 80 | 1006.2 |
| 20260906023402 | 84 | 107 | 3.0 | 7.0 | 0.00 | 0.00 | 0.00 | 80 | 1006.1 |
| 20260906023301 | 84 | 106 | 4.0 | 7.0 | 0.00 | 0.00 | 0.00 | 80 | 1006.1 |
| 20260906023203 | 84 | 107 | 4.0 | 7.0 | 0.00 | 0.00 | 0.00 | 80 | 1006.1 |
| 20260906023103 | 84 | 110 | 4.0 | 7.0 | 0.00 | 0.00 | 0.00 | 80 | 1006.1 |
| 20260906023003 | 84 | 110 | 5.0 | 7.0 | 0.00 | 0.00 | 0.00 | 80 | 1006.0 |
| 20260906022902 | 84 | 118 | 4.0 | 7.0 | 0.00 | 0.00 | 0.00 | 80 | 1006.0 |
| 20260906022803 | 84 | 103 | 5.0 | 7.0 | 0.00 | 0.00 | 0.00 | 80 | 1006.0 |
| 20260906022702 | 84 | 107 | 4.0 | 7.0 | 0.00 | 0.00 | 0.00 | 80 | 1006.1 |
| 20260906022602 | 84 | 94 | 4.0 | 5.0 | 0.00 | 0.00 | 0.00 | 80 | 1006.0 |
| 20260906022504 | 84 | 110 | 4.0 | 6.0 | 0.00 | 0.00 | 0.00 | 81 | 1006.0 |
| 20260906022402 | 84 | 107 | 4.0 | 6.0 | 0.00 | 0.00 | 0.00 | 81 | 1006.0 |
| 20260906022307 | 84 | 110 | 4.0 | 6.0 | 0.00 | 0.00 | 0.00 | 81 | 1006.0 |
| 20260906022201 | 83 | 116 | 4.0 | 6.0 | 0.00 | 0.00 | 0.00 | 81 | 1006.0 |
| 20260906022103 | 83 | 102 | 3.0 | 6.0 | 0.00 | 0.00 | 0.00 | 81 | 1006.0 |
| 20260906022003 | 83 | 96 | 4.0 | 6.0 | 0.00 | 0.00 | 0.00 | 81 | 1005.9 |
| 20260906021902 | 83 | 99 | 4.0 | 6.0 | 0.00 | 0.00 | 0.00 | 81 | 1005.9 |
| 20260906021803 | 83 | 118 | 4.0 | 6.0 | 0.00 | 0.00 | 0.00 | 81 | 1005.8 |
| 20260906021702 | 83 | 106 | 4.0 | 6.0 | 0.00 | 0.00 | 0.00 | 81 | 1005.8 |
| 20260906021602 | 83 | 92 | 4.0 | 6.0 | 0.00 | 0.00 | 0.00 | 81 | 1005.7 |
| 20260906021505 | 83 | 94 | 4.0 | 5.0 | 0.00 | 0.00 | 0.00 | 81 | 1005.7 |
| 20260906021404 | 83 | 94 | 3.0 | 5.0 | 0.00 | 0.00 | 0.00 | 81 | 1005.8 |
| 20260906021303 | 82 | 100 | 1.0 | 5.0 | 0.00 | 0.00 | 0.00 | 81 | 1005.7 |
| 20260906021203 | 82 | 73 | 0.0 | 0.0 | 0.00 | 0.00 | 0.00 | 81 | 1005.6 |
| 20260906021102 | 82 | 72 | 0.0 | 0.0 | 0.00 | 0.00 | 0.00 | 81 | 1005.6 |
| 20260906021002 | 82 | 72 | 0.0 | 0.0 | 0.00 | 0.00 | 0.00 | 81 | 1005.6 |
| 20260906020904 | 82 | 72 | 0.0 | 0.0 | 0.00 | 0.00 | 0.00 | 81 | 1005.7 |
| 20260906020803 | 82 | 72 | 0.0 | 0.0 | 0.00 | 0.00 | 0.00 | 81 | 1005.6 |
| 20260906020702 | 82 | 72 | 0.0 | 0.0 | 0.00 | 0.00 | 0.00 | 81 | 1005.5 |
| 20260906020604 | 82 | 72 | 0.0 | 0.0 | 0.00 | 0.00 | 0.00 | 81 | 1005.6 |
| 20260906020504 | 82 | 72 | 0.0 | 0.0 | 0.00 | 0.00 | 0.00 | 81 | 1005.5 |
| 20260906020403 | 82 | 72 | 0.0 | 0.0 | 0.00 | 0.00 | 0.00 | 81 | 1005.5 |
| 20260906020303 | 82 | 72 | 0.0 | 0.0 | 0.00 | 0.00 | 0.00 | 81 | 1005.5 |
| 20260906020202 | 82 | 72 | 0.0 | 0.0 | 0.00 | 0.00 | 0.00 | 81 | 1005.5 |
| 20260906020103 | 82 | 72 | 0.0 | 0.0 | 0.00 | 0.00 | 0.00 | 81 | 1005.5 |
| 20260906020002 | 82 | 72 | 0.0 | 0.0 | 0.00 | 0.00 | 0.00 | 81 | 1005.4 |
| 20260906015902 | 82 | 72 | 0.0 | 0.0 | 0.00 | 0.00 | 0.00 | 81 | 1005.4 |
| 20260906015804 | 82 | 72 | 0.0 | 0.0 | 0.00 | 0.00 | 0.00 | 81 | 1005.3 |
| 20260906015702 | 82 | 72 | 0.0 | 0.0 | 0.00 | 0.00 | 0.00 | 81 | 1005.4 |
| 20260906015602 | 82 | 72 | 0.0 | 0.0 | 0.00 | 0.00 | 0.00 | 80 | 1005.4 |
| 20260906015503 | 82 | 72 | 0.0 | 0.0 | 0.00 | 0.00 | 0.00 | 80 | 1005.3 |
| 20260906015403 | 82 | 72 | 0.0 | 0.0 | 0.00 | 0.00 | 0.00 | 80 | 1005.3 |
| 20260906015306 | 83 | 72 | 0.0 | 0.0 | 0.00 | 0.00 | 0.00 | 80 | 1005.4 |
| 20260906015203 | 83 | 72 | 0.0 | 0.0 | 0.00 | 0.00 | 0.00 | 80 | 1005.4 |
| 20260906015102 | 82 | 72 | 0.0 | 0.0 | 0.00 | 0.00 | 0.00 | 80 | 1005.3 |
| 20260906015005 | 83 | 72 | 0.0 | 0.0 | 0.00 | 0.00 | 0.00 | 80 | 1005.3 |
| 20260906014903 | 83 | 72 | 0.0 | 0.0 | 0.00 | 0.00 | 0.00 | 80 | 1005.3 |
| 20260906014804 | 83 | 72 | 0.0 | 0.0 | 0.00 | 0.00 | 0.00 | 80 | 1005.4 |
| 20260906014702 | 83 | 72 | 0.0 | 0.0 | 0.00 | 0.00 | 0.00 | 80 | 1005.3 |
| 20260906014603 | 83 | 72 | 0.0 | 0.0 | 0.00 | 0.00 | 0.00 | 80 | 1005.3 |
| 20260906014504 | 83 | 72 | 0.0 | 0.0 | 0.00 | 0.00 | 0.00 | 79 | 1005.3 |
| 20260906014403 | 83 | 71 | 0.0 | 0.0 | 0.00 | 0.00 | 0.00 | 79 | 1005.4 |
| 20260906014305 | 83 | 75 | 0.0 | 0.0 | 0.00 | 0.00 | 0.00 | 79 | 1005.3 |
| 20260906014202 | 83 | 76 | 0.0 | 0.0 | 0.00 | 0.00 | 0.00 | 79 | 1005.3 |
| 20260906014104 | 83 | 76 | 0.0 | 0.0 | 0.00 | 0.00 | 0.00 | 79 | 1005.4 |
| 20260906014005 | 83 | 76 | 0.0 | 0.0 | 0.00 | 0.00 | 0.00 | 79 | 1005.3 |
| 20260906013904 | 83 | 76 | 0.0 | 4.0 | 0.00 | 0.00 | 0.00 | 79 | 1005.3 |
| 20260906013801 | 83 | 75 | 0.0 | 4.0 | 0.00 | 0.00 | 0.00 | 79 | 1005.3 |
| 20260906013704 | 83 | 75 | 0.0 | 4.0 | 0.00 | 0.00 | 0.00 | 78 | 1005.3 |
| 20260906013603 | 83 | 75 | 0.0 | 4.0 | 0.00 | 0.00 | 0.00 | 78 | 1005.2 |
| 20260906013503 | 83 | 75 | 0.0 | 4.0 | 0.00 | 0.00 | 0.00 | 78 | 1005.2 |
| 20260906013403 | 83 | 75 | 0.0 | 4.0 | 0.00 | 0.00 | 0.00 | 78 | 1005.3 |
| 20260906013303 | 83 | 73 | 0.0 | 4.0 | 0.00 | 0.00 | 0.00 | 78 | 1005.3 |
| 20260906013203 | 83 | 75 | 0.0 | 4.0 | 0.00 | 0.00 | 0.00 | 78 | 1005.2 |
| 20260906013104 | 83 | 73 | 2.0 | 4.0 | 0.00 | 0.00 | 0.00 | 78 | 1005.3 |
| 20260906013003 | 83 | 73 | 2.0 | 4.0 | 0.00 | 0.00 | 0.00 | 78 | 1005.3 |
| 20260906012903 | 83 | 71 | 2.0 | 4.0 | 0.00 | 0.00 | 0.00 | 78 | 1005.3 |
| 20260906012802 | 83 | 62 | 2.0 | 4.0 | 0.00 | 0.00 | 0.00 | 78 | 1005.4 |
| 20260906012702 | 83 | 54 | 2.0 | 4.0 | 0.00 | 0.00 | 0.00 | 78 | 1005.4 |
| 20260906012604 | 83 | 45 | 2.0 | 4.0 | 0.00 | 0.00 | 0.00 | 78 | 1005.3 |
| 20260906012505 | 83 | 44 | 2.0 | 4.0 | 0.00 | 0.00 | 0.00 | 78 | 1005.3 |
| 20260906012404 | 83 | 49 | 2.0 | 5.0 | 0.00 | 0.00 | 0.00 | 78 | 1005.3 |
| 20260906012305 | 83 | 47 | 2.0 | 5.0 | 0.00 | 0.00 | 0.00 | 78 | 1005.3 |
| 20260906012203 | 83 | 54 | 1.0 | 5.0 | 0.00 | 0.00 | 0.00 | 78 | 1005.2 |
| 20260906012102 | 83 | 55 | 1.0 | 5.0 | 0.00 | 0.00 | 0.00 | 78 | 1005.2 |
| 20260906012003 | 83 | 55 | 2.0 | 5.0 | 0.00 | 0.00 | 0.00 | 78 | 1005.2 |
| 20260906011903 | 84 | 56 | 3.0 | 5.0 | 0.00 | 0.00 | 0.00 | 78 | 1005.2 |
| 20260906011804 | 84 | 51 | 2.0 | 5.0 | 0.00 | 0.00 | 0.00 | 77 | 1005.2 |
| 20260906011703 | 84 | 54 | 2.0 | 5.0 | 0.00 | 0.00 | 0.00 | 77 | 1005.1 |
| 20260906011604 | 84 | 52 | 3.0 | 5.0 | 0.00 | 0.00 | 0.00 | 77 | 1005.2 |
| 20260906011503 | 84 | 25 | 3.0 | 5.0 | 0.00 | 0.00 | 0.00 | 77 | 1005.2 |
| 20260906011404 | 84 | 78 | 2.0 | 5.0 | 0.00 | 0.00 | 0.00 | 77 | 1005.1 |
| 20260906011303 | 84 | 32 | 2.0 | 5.0 | 0.00 | 0.00 | 0.00 | 77 | 1005.1 |
| 20260906011204 | 84 | 32 | 2.0 | 5.0 | 0.00 | 0.00 | 0.00 | 77 | 1005.2 |
| 20260906011103 | 84 | 37 | 2.0 | 5.0 | 0.00 | 0.00 | 0.00 | 77 | 1005.2 |
| 20260906011004 | 84 | 14 | 3.0 | 5.0 | 0.00 | 0.00 | 0.00 | 77 | 1005.1 |
| 20260906010903 | 84 | 28 | 4.0 | 5.0 | 0.00 | 0.00 | 0.00 | 77 | 1005.1 |
| 20260906010804 | 84 | 14 | 3.0 | 4.0 | 0.00 | 0.00 | 0.00 | 77 | 1005.2 |
| 20260906010703 | 84 | 0 | 2.0 | 4.0 | 0.00 | 0.00 | 0.00 | 77 | 1005.1 |
| 20260906010603 | 84 | 0 | 2.0 | 4.0 | 0.00 | 0.00 | 0.00 | 77 | 1005.2 |
| 20260906010505 | 84 | 0 | 2.0 | 4.0 | 0.00 | 0.00 | 0.00 | 77 | 1005.2 |
| 20260906010402 | 84 | 0 | 3.0 | 4.0 | 0.00 | 0.00 | 0.00 | 77 | 1005.2 |
| 20260906010305 | 84 | 0 | 2.0 | 4.0 | 0.00 | 0.00 | 0.00 | 77 | 1005.2 |
| 20260906010204 | 84 | 13 | 2.0 | 3.0 | 0.00 | 0.00 | 0.00 | 77 | 1005.2 |
| 20260906010003 | 84 | 30 | 1.0 | 4.0 | 0.00 | 0.00 | 0.00 | 77 | 1005.1 |
| 20260906005903 | 84 | 0 | 0.0 | 4.0 | 0.00 | 0.00 | 0.00 | 77 | 1005.2 |
| 20260906005803 | 84 | 0 | 0.0 | 4.0 | 0.00 | 0.00 | 0.00 | 77 | 1005.2 |
| 20260906005703 | 84 | 0 | 0.0 | 4.0 | 0.00 | 0.00 | 0.00 | 76 | 1005.2 |
| 20260906005603 | 84 | 31 | 0.0 | 4.0 | 0.00 | 0.00 | 0.00 | 76 | 1005.2 |
| 20260906005501 | 84 | 31 | 1.0 | 4.0 | 0.00 | 0.00 | 0.00 | 76 | 1005.2 |
| 20260906005404 | 84 | 31 | 2.0 | 4.0 | 0.00 | 0.00 | 0.00 | 76 | 1005.2 |
| 20260906005306 | 84 | 34 | 2.0 | 4.0 | 0.00 | 0.00 | 0.00 | 76 | 1005.3 |
| 20260906005202 | 84 | 35 | 3.0 | 4.0 | 0.00 | 0.00 | 0.00 | 76 | 1005.2 |
| 20260906005102 | 84 | 10 | 3.0 | 4.0 | 0.00 | 0.00 | 0.00 | 76 | 1005.2 |
| 20260906005002 | 84 | 13 | 4.0 | 4.0 | 0.00 | 0.00 | 0.00 | 76 | 1005.3 |
| 20260906004904 | 84 | 14 | 3.0 | 4.0 | 0.00 | 0.00 | 0.00 | 76 | 1005.2 |
| 20260906004803 | 84 | 14 | 3.0 | 4.0 | 0.00 | 0.00 | 0.00 | 76 | 1005.3 |
| 20260906004702 | 84 | 7 | 4.0 | 4.0 | 0.00 | 0.00 | 0.00 | 76 | 1005.3 |
| 20260906004603 | 84 | 3 | 3.0 | 4.0 | 0.00 | 0.00 | 0.00 | 76 | 1005.3 |
| 20260906004503 | 84 | 3 | 3.0 | 4.0 | 0.00 | 0.00 | 0.00 | 76 | 1005.3 |
| 20260906004404 | 84 | 3 | 3.0 | 5.0 | 0.00 | 0.00 | 0.00 | 76 | 1005.4 |
| 20260906004303 | 84 | 3 | 3.0 | 5.0 | 0.00 | 0.00 | 0.00 | 76 | 1005.3 |
| 20260906004204 | 84 | 3 | 3.0 | 5.0 | 0.00 | 0.00 | 0.00 | 76 | 1005.3 |
| 20260906004104 | 84 | 3 | 3.0 | 5.0 | 0.00 | 0.00 | 0.00 | 76 | 1005.4 |
| 20260906004005 | 84 | 0 | 3.0 | 5.0 | 0.00 | 0.00 | 0.00 | 76 | 1005.4 |
| 20260906003902 | 84 | 1 | 3.0 | 5.0 | 0.00 | 0.00 | 0.00 | 76 | 1005.4 |
| 20260906003804 | 84 | 0 | 4.0 | 5.0 | 0.00 | 0.00 | 0.00 | 76 | 1005.3 |
| 20260906003705 | 84 | 28 | 4.0 | 5.0 | 0.00 | 0.00 | 0.00 | 76 | 1005.4 |
| 20260906003604 | 84 | 3 | 3.0 | 5.0 | 0.00 | 0.00 | 0.00 | 76 | 1005.4 |
| 20260906003504 | 84 | 0 | 3.0 | 5.0 | 0.00 | 0.00 | 0.00 | 76 | 1005.4 |
| 20260906003403 | 84 | 358 | 4.0 | 4.0 | 0.00 | 0.00 | 0.00 | 77 | 1005.4 |
| 20260906003303 | 84 | 0 | 3.0 | 4.0 | 0.00 | 0.00 | 0.00 | 77 | 1005.4 |
| 20260906003204 | 84 | 0 | 3.0 | 4.0 | 0.00 | 0.00 | 0.00 | 77 | 1005.3 |
| 20260906003104 | 84 | 0 | 3.0 | 4.0 | 0.00 | 0.00 | 0.00 | 77 | 1005.4 |
| 20260906003003 | 84 | 0 | 3.0 | 4.0 | 0.00 | 0.00 | 0.00 | 77 | 1005.4 |
| 20260906002903 | 84 | 1 | 3.0 | 4.0 | 0.00 | 0.00 | 0.00 | 77 | 1005.4 |
| 20260906002803 | 84 | 4 | 3.0 | 4.0 | 0.00 | 0.00 | 0.00 | 77 | 1005.4 |
| 20260906002703 | 84 | 3 | 3.0 | 4.0 | 0.00 | 0.00 | 0.00 | 77 | 1005.4 |
| 20260906002602 | 84 | 14 | 2.0 | 4.0 | 0.00 | 0.00 | 0.00 | 77 | 1005.3 |
| 20260906002503 | 84 | 18 | 2.0 | 3.0 | 0.00 | 0.00 | 0.00 | 77 | 1005.4 |
| 20260906002403 | 84 | 20 | 1.0 | 2.0 | 0.00 | 0.00 | 0.00 | 77 | 1005.4 |
| 20260906002305 | 84 | 20 | 1.0 | 2.0 | 0.00 | 0.00 | 0.00 | 77 | 1005.4 |
| 20260906002203 | 84 | 21 | 1.0 | 2.0 | 0.00 | 0.00 | 0.00 | 77 | 1005.4 |
| 20260906002101 | 84 | 21 | 0.0 | 3.0 | 0.00 | 0.00 | 0.00 | 77 | 1005.5 |
| 20260906002003 | 84 | 21 | 0.0 | 3.0 | 0.00 | 0.00 | 0.00 | 76 | 1005.5 |
| 20260906001904 | 84 | 21 | 0.0 | 3.0 | 0.00 | 0.00 | 0.00 | 76 | 1005.5 |
| 20260906001802 | 84 | 21 | 0.0 | 3.0 | 0.00 | 0.00 | 0.00 | 76 | 1005.4 |
| 20260906001702 | 84 | 21 | 0.0 | 3.0 | 0.00 | 0.00 | 0.00 | 76 | 1005.5 |
| 20260906001603 | 84 | 23 | 0.0 | 3.0 | 0.00 | 0.00 | 0.00 | 76 | 1005.6 |
| 20260906001503 | 85 | 23 | 0.0 | 3.0 | 0.00 | 0.00 | 0.00 | 76 | 1005.5 |
| 20260906001403 | 85 | 23 | 0.0 | 4.0 | 0.00 | 0.00 | 0.00 | 76 | 1005.5 |
| 20260906001303 | 85 | 20 | 1.0 | 4.0 | 0.00 | 0.00 | 0.00 | 76 | 1005.5 |
| 20260906001202 | 85 | 20 | 2.0 | 4.0 | 0.00 | 0.00 | 0.00 | 76 | 1005.5 |
| 20260906001102 | 85 | 20 | 1.0 | 5.0 | 0.00 | 0.00 | 0.00 | 76 | 1005.5 |
| 20260906001004 | 85 | 20 | 1.0 | 5.0 | 0.00 | 0.00 | 0.00 | 76 | 1005.5 |
| 20260906000903 | 85 | 8 | 2.0 | 5.0 | 0.00 | 0.00 | 0.00 | 75 | 1005.5 |
| 20260906000803 | 85 | 10 | 2.0 | 5.0 | 0.00 | 0.00 | 0.00 | 75 | 1005.5 |
| 20260906000704 | 85 | 8 | 2.0 | 5.0 | 0.00 | 0.00 | 0.00 | 75 | 1005.5 |
| 20260906000602 | 85 | 8 | 3.0 | 5.0 | 0.00 | 0.00 | 0.00 | 75 | 1005.5 |
| 20260906000503 | 85 | 11 | 3.0 | 5.0 | 0.00 | 0.00 | 0.00 | 75 | 1005.5 |
| 20260906000403 | 85 | 14 | 4.0 | 5.0 | 0.00 | 0.00 | 0.00 | 75 | 1005.5 |
| 20260906000304 | 85 | 357 | 4.0 | 5.0 | 0.00 | 0.00 | 0.00 | 75 | 1005.6 |
| 20260906000205 | 86 | 0 | 4.0 | 5.0 | 0.00 | 0.00 | 0.00 | 74 | 1005.6 |
| 20260906000003 | 86 | 0 | 1.0 | 5.0 | 0.00 | 0.00 | 0.00 | 75 | 1005.6 |
| 20260905235902 | 86 | 330 | 0.0 | 3.0 | 0.00 | 0.00 | 0.00 | 75 | 1005.6 |
| 20260905235803 | 87 | 0 | 0.0 | 1.0 | 0.00 | 0.00 | 0.00 | 75 | 1005.6 |
| 20260905235703 | 87 | 23 | 0.0 | 1.0 | 0.00 | 0.00 | 0.00 | 74 | 1005.6 |
| 20260905235603 | 87 | 24 | 0.0 | 2.0 | 0.00 | 0.00 | 0.00 | 75 | 1005.6 |
| 20260905235505 | 87 | 24 | 0.0 | 3.0 | 0.00 | 0.00 | 0.00 | 75 | 1005.6 |
| 20260905235403 | 87 | 24 | 0.0 | 3.0 | 0.00 | 0.00 | 0.00 | 75 | 1005.6 |
| 20260905235306 | 87 | 24 | 0.0 | 3.0 | 0.00 | 0.00 | 0.00 | 74 | 1005.7 |
| 20260905235201 | 87 | 24 | 0.0 | 5.0 | 0.00 | 0.00 | 0.00 | 74 | 1005.7 |
| 20260905235103 | 87 | 24 | 0.0 | 5.0 | 0.00 | 0.00 | 0.00 | 74 | 1005.7 |
| 20260905235005 | 87 | 24 | 0.0 | 5.0 | 0.00 | 0.00 | 0.00 | 74 | 1005.7 |
| 20260905234903 | 87 | 24 | 0.0 | 5.0 | 0.00 | 0.00 | 0.00 | 74 | 1005.7 |
| 20260905234802 | 87 | 24 | 0.0 | 5.0 | 0.00 | 0.00 | 0.00 | 74 | 1005.6 |
| 20260905234704 | 87 | 24 | 2.0 | 5.0 | 0.00 | 0.00 | 0.00 | 74 | 1005.7 |
| 20260905234604 | 87 | 18 | 2.0 | 5.0 | 0.00 | 0.00 | 0.00 | 74 | 1005.7 |
| 20260905234504 | 87 | 7 | 3.0 | 5.0 | 0.00 | 0.00 | 0.00 | 74 | 1005.6 |
| 20260905234402 | 87 | 8 | 3.0 | 5.0 | 0.00 | 0.00 | 0.00 | 74 | 1005.6 |
| 20260905234303 | 87 | 10 | 3.0 | 5.0 | 0.00 | 0.00 | 0.00 | 74 | 1005.6 |
| 20260905234202 | 87 | 23 | 2.0 | 3.0 | 0.00 | 0.00 | 0.00 | 74 | 1005.7 |
| 20260905234103 | 87 | 23 | 2.0 | 3.0 | 0.00 | 0.00 | 0.00 | 74 | 1005.6 |
| 20260905234004 | 87 | 27 | 2.0 | 3.0 | 0.00 | 0.00 | 0.00 | 74 | 1005.7 |
| 20260905233904 | 87 | 28 | 1.0 | 3.0 | 0.00 | 0.00 | 0.00 | 74 | 1005.6 |
| 20260905233804 | 87 | 28 | 1.0 | 3.0 | 0.00 | 0.00 | 0.00 | 74 | 1005.7 |
| 20260905233704 | 87 | 21 | 1.0 | 3.0 | 0.00 | 0.00 | 0.00 | 73 | 1005.7 |
| 20260905233603 | 87 | 55 | 1.0 | 4.0 | 0.00 | 0.00 | 0.00 | 73 | 1005.7 |
| 20260905233502 | 87 | 63 | 1.0 | 4.0 | 0.00 | 0.00 | 0.00 | 73 | 1005.7 |
| 20260905233409 | 87 | 66 | 2.0 | 5.0 | 0.00 | 0.00 | 0.00 | 73 | 1005.7 |
| 20260905233303 | 87 | 66 | 2.0 | 5.0 | 0.00 | 0.00 | 0.00 | 73 | 1005.7 |
| 20260905233204 | 87 | 56 | 2.0 | 5.0 | 0.00 | 0.00 | 0.00 | 73 | 1005.7 |
| 20260905233104 | 87 | 56 | 2.0 | 5.0 | 0.00 | 0.00 | 0.00 | 73 | 1005.8 |
| 20260905233004 | 87 | 56 | 2.0 | 5.0 | 0.00 | 0.00 | 0.00 | 73 | 1005.7 |
| 20260905232904 | 87 | 56 | 2.0 | 5.0 | 0.00 | 0.00 | 0.00 | 73 | 1005.8 |
| 20260905232804 | 87 | 56 | 2.0 | 5.0 | 0.00 | 0.00 | 0.00 | 73 | 1005.8 |
| 20260905232701 | 87 | 59 | 2.0 | 5.0 | 0.00 | 0.00 | 0.00 | 73 | 1005.8 |
| 20260905232602 | 87 | 59 | 2.0 | 5.0 | 0.00 | 0.00 | 0.00 | 73 | 1005.8 |
| 20260905232504 | 87 | 59 | 2.0 | 5.0 | 0.00 | 0.00 | 0.00 | 73 | 1005.8 |
| 20260905232403 | 87 | 56 | 1.0 | 4.0 | 0.00 | 0.00 | 0.00 | 73 | 1005.9 |
| 20260905232305 | 87 | 89 | 0.0 | 4.0 | 0.00 | 0.00 | 0.00 | 73 | 1005.9 |
| 20260905232203 | 87 | 90 | 0.0 | 4.0 | 0.00 | 0.00 | 0.00 | 73 | 1005.9 |
| 20260905232102 | 87 | 90 | 0.0 | 4.0 | 0.00 | 0.00 | 0.00 | 73 | 1005.9 |
| 20260905232004 | 87 | 90 | 0.0 | 4.0 | 0.00 | 0.00 | 0.00 | 73 | 1005.8 |
| 20260905231904 | 87 | 90 | 0.0 | 4.0 | 0.00 | 0.00 | 0.00 | 73 | 1005.8 |
| 20260905231803 | 87 | 92 | 0.0 | 4.0 | 0.00 | 0.00 | 0.00 | 73 | 1005.8 |
| 20260905231704 | 87 | 92 | 2.0 | 4.0 | 0.00 | 0.00 | 0.00 | 73 | 1005.8 |
| 20260905231603 | 87 | 94 | 1.0 | 4.0 | 0.00 | 0.00 | 0.00 | 73 | 1005.8 |
| 20260905231503 | 87 | 92 | 0.0 | 3.0 | 0.00 | 0.00 | 0.00 | 73 | 1005.7 |
| 20260905231404 | 87 | 96 | 0.0 | 3.0 | 0.00 | 0.00 | 0.00 | 73 | 1005.7 |
| 20260905231302 | 87 | 96 | 0.0 | 3.0 | 0.00 | 0.00 | 0.00 | 73 | 1005.7 |
| 20260905231203 | 87 | 96 | 1.0 | 3.0 | 0.00 | 0.00 | 0.00 | 73 | 1005.6 |
| 20260905231102 | 87 | 96 | 1.0 | 3.0 | 0.00 | 0.00 | 0.00 | 72 | 1005.6 |
| 20260905231003 | 87 | 96 | 2.0 | 4.0 | 0.00 | 0.00 | 0.00 | 72 | 1005.5 |
| 20260905230903 | 87 | 96 | 1.0 | 4.0 | 0.00 | 0.00 | 0.00 | 73 | 1005.5 |
| 20260905230804 | 87 | 123 | 1.0 | 4.0 | 0.00 | 0.00 | 0.00 | 72 | 1005.4 |
| 20260905230703 | 87 | 124 | 1.0 | 6.0 | 0.00 | 0.00 | 0.00 | 72 | 1005.6 |
| 20260905230603 | 87 | 124 | 2.0 | 6.0 | 0.00 | 0.00 | 0.00 | 72 | 1005.5 |
| 20260905230504 | 87 | 125 | 2.0 | 6.0 | 0.00 | 0.00 | 0.00 | 73 | 1005.4 |
| 20260905230403 | 87 | 125 | 2.0 | 6.0 | 0.00 | 0.00 | 0.00 | 73 | 1005.4 |
| 20260905230303 | 87 | 133 | 2.0 | 6.0 | 0.00 | 0.00 | 0.00 | 73 | 1005.4 |
| 20260905230204 | 87 | 110 | 3.0 | 6.0 | 0.00 | 0.00 | 0.00 | 73 | 1005.4 |
| 20260905230004 | 87 | 118 | 3.0 | 6.0 | 0.00 | 0.00 | 0.00 | 73 | 1005.4 |
| 20260905225902 | 87 | 118 | 4.0 | 6.0 | 0.00 | 0.00 | 0.00 | 73 | 1005.5 |
| 20260905225804 | 87 | 117 | 4.0 | 6.0 | 0.00 | 0.00 | 0.00 | 73 | 1005.5 |
| 20260905225703 | 87 | 138 | 5.0 | 6.0 | 0.00 | 0.00 | 0.00 | 72 | 1005.5 |
| 20260905225603 | 87 | 123 | 4.0 | 6.0 | 0.00 | 0.00 | 0.00 | 72 | 1005.5 |
| 20260905225505 | 87 | 116 | 4.0 | 6.0 | 0.00 | 0.00 | 0.00 | 72 | 1005.6 |
| 20260905225403 | 87 | 118 | 4.0 | 6.0 | 0.00 | 0.00 | 0.00 | 73 | 1005.5 |
| 20260905225305 | 87 | 99 | 4.0 | 6.0 | 0.00 | 0.00 | 0.00 | 73 | 1005.5 |
| 20260905225203 | 87 | 85 | 2.0 | 6.0 | 0.00 | 0.00 | 0.00 | 73 | 1005.5 |
| 20260905225103 | 87 | 76 | 2.0 | 6.0 | 0.00 | 0.00 | 0.00 | 73 | 1005.6 |
| 20260905225004 | 87 | 75 | 2.0 | 6.0 | 0.00 | 0.00 | 0.00 | 73 | 1005.5 |
| 20260905224903 | 87 | 113 | 1.0 | 6.0 | 0.00 | 0.00 | 0.00 | 73 | 1005.5 |
| 20260905224804 | 87 | 113 | 2.0 | 6.0 | 0.00 | 0.00 | 0.00 | 72 | 1005.4 |
| 20260905224704 | 87 | 114 | 4.0 | 6.0 | 0.00 | 0.00 | 0.00 | 72 | 1005.4 |
| 20260905224603 | 87 | 123 | 4.0 | 6.0 | 0.00 | 0.00 | 0.00 | 73 | 1005.4 |
| 20260905224502 | 87 | 109 | 4.0 | 6.0 | 0.00 | 0.00 | 0.00 | 73 | 1005.3 |
| 20260905224403 | 87 | 124 | 3.0 | 6.0 | 0.00 | 0.00 | 0.00 | 73 | 1005.3 |
| 20260905224304 | 87 | 133 | 3.0 | 6.0 | 0.00 | 0.00 | 0.00 | 73 | 1005.3 |
| 20260905224203 | 87 | 131 | 3.0 | 6.0 | 0.00 | 0.00 | 0.00 | 73 | 1005.2 |
| 20260905224104 | 87 | 127 | 3.0 | 6.0 | 0.00 | 0.00 | 0.00 | 73 | 1005.3 |
| 20260905224003 | 87 | 116 | 4.0 | 6.0 | 0.00 | 0.00 | 0.00 | 73 | 1005.3 |
| 20260905223904 | 87 | 128 | 5.0 | 7.0 | 0.00 | 0.00 | 0.00 | 72 | 1005.3 |
| 20260905223804 | 87 | 109 | 5.0 | 7.0 | 0.00 | 0.00 | 0.00 | 73 | 1005.2 |
| 20260905223703 | 87 | 114 | 5.0 | 7.0 | 0.00 | 0.00 | 0.00 | 73 | 1005.3 |
| 20260905223603 | 87 | 128 | 5.0 | 7.0 | 0.00 | 0.00 | 0.00 | 73 | 1005.2 |
| 20260905223502 | 87 | 116 | 4.0 | 7.0 | 0.00 | 0.00 | 0.00 | 73 | 1005.3 |
| 20260905223403 | 87 | 93 | 3.0 | 7.0 | 0.00 | 0.00 | 0.00 | 73 | 1005.2 |
| 20260905223303 | 87 | 110 | 3.0 | 7.0 | 0.00 | 0.00 | 0.00 | 73 | 1005.3 |
| 20260905223203 | 87 | 114 | 4.0 | 7.0 | 0.00 | 0.00 | 0.00 | 73 | 1005.2 |
| 20260905223101 | 87 | 111 | 5.0 | 7.0 | 0.00 | 0.00 | 0.00 | 73 | 1005.2 |
| 20260905223003 | 87 | 100 | 6.0 | 7.0 | 0.00 | 0.00 | 0.00 | 73 | 1005.1 |
| 20260905222903 | 87 | 106 | 5.0 | 7.0 | 0.00 | 0.00 | 0.00 | 73 | 1005.1 |
| 20260905222802 | 87 | 110 | 4.0 | 6.0 | 0.00 | 0.00 | 0.00 | 73 | 1005.2 |
| 20260905222704 | 87 | 130 | 4.0 | 6.0 | 0.00 | 0.00 | 0.00 | 73 | 1005.1 |
| 20260905222604 | 87 | 97 | 4.0 | 6.0 | 0.00 | 0.00 | 0.00 | 73 | 1005.1 |
| 20260905222503 | 87 | 99 | 4.0 | 6.0 | 0.00 | 0.00 | 0.00 | 73 | 1005.1 |
| 20260905222403 | 87 | 102 | 5.0 | 6.0 | 0.00 | 0.00 | 0.00 | 73 | 1005.1 |
| 20260905222306 | 87 | 102 | 5.0 | 6.0 | 0.00 | 0.00 | 0.00 | 73 | 1005.1 |
| 20260905222203 | 87 | 87 | 4.0 | 6.0 | 0.00 | 0.00 | 0.00 | 72 | 1005.1 |
| 20260905222104 | 87 | 85 | 4.0 | 6.0 | 0.00 | 0.00 | 0.00 | 73 | 1005.2 |
| 20260905222005 | 87 | 93 | 4.0 | 5.0 | 0.00 | 0.00 | 0.00 | 72 | 1005.1 |
| 20260905221903 | 87 | 97 | 4.0 | 5.0 | 0.00 | 0.00 | 0.00 | 72 | 1005.2 |
| 20260905221803 | 87 | 83 | 4.0 | 6.0 | 0.00 | 0.00 | 0.00 | 72 | 1005.2 |
| 20260905221704 | 87 | 106 | 4.0 | 6.0 | 0.00 | 0.00 | 0.00 | 72 | 1005.1 |
| 20260905221604 | 87 | 124 | 3.0 | 9.0 | 0.00 | 0.00 | 0.00 | 73 | 1005.1 |
| 20260905221506 | 87 | 135 | 3.0 | 9.0 | 0.00 | 0.00 | 0.00 | 73 | 1005.2 |
| 20260905221404 | 87 | 123 | 3.0 | 9.0 | 0.00 | 0.00 | 0.00 | 73 | 1005.1 |
| 20260905221303 | 87 | 118 | 4.0 | 9.0 | 0.00 | 0.00 | 0.00 | 73 | 1005.2 |
| 20260905221203 | 87 | 134 | 4.0 | 9.0 | 0.00 | 0.00 | 0.00 | 73 | 1005.1 |
| 20260905221104 | 87 | 120 | 4.0 | 9.0 | 0.00 | 0.00 | 0.00 | 73 | 1005.2 |
| 20260905221002 | 87 | 111 | 5.0 | 9.0 | 0.00 | 0.00 | 0.00 | 72 | 1005.3 |
| 20260905220901 | 87 | 125 | 5.0 | 9.0 | 0.00 | 0.00 | 0.00 | 72 | 1005.3 |
| 20260905220804 | 87 | 117 | 6.0 | 9.0 | 0.00 | 0.00 | 0.00 | 72 | 1005.3 |
| 20260905220703 | 87 | 109 | 5.0 | 9.0 | 0.00 | 0.00 | 0.00 | 72 | 1005.3 |
| 20260905220604 | 87 | 141 | 4.0 | 7.0 | 0.00 | 0.00 | 0.00 | 72 | 1005.3 |
| 20260905220504 | 87 | 145 | 5.0 | 7.0 | 0.00 | 0.00 | 0.00 | 72 | 1005.3 |
| 20260905220404 | 88 | 102 | 6.0 | 7.0 | 0.00 | 0.00 | 0.00 | 71 | 1005.3 |
| 20260905220304 | 88 | 127 | 4.0 | 7.0 | 0.00 | 0.00 | 0.00 | 71 | 1005.3 |
| 20260905220203 | 88 | 114 | 3.0 | 6.0 | 0.00 | 0.00 | 0.00 | 71 | 1005.2 |
| 20260905220004 | 87 | 131 | 1.0 | 7.0 | 0.00 | 0.00 | 0.00 | 71 | 1005.2 |
| 20260905215903 | 87 | 128 | 1.0 | 7.0 | 0.00 | 0.00 | 0.00 | 70 | 1005.2 |
| 20260905215803 | 87 | 128 | 3.0 | 7.0 | 0.00 | 0.00 | 0.00 | 70 | 1005.3 |
| 20260905215705 | 87 | 145 | 4.0 | 9.0 | 0.00 | 0.00 | 0.00 | 71 | 1005.3 |
| 20260905215602 | 87 | 121 | 4.0 | 9.0 | 0.00 | 0.00 | 0.00 | 71 | 1005.2 |
| 20260905215504 | 87 | 113 | 2.0 | 9.0 | 0.00 | 0.00 | 0.00 | 71 | 1005.3 |
| 20260905215403 | 87 | 124 | 3.0 | 11.0 | 0.00 | 0.00 | 0.00 | 71 | 1005.2 |
| 20260905215306 | 87 | 141 | 5.0 | 11.0 | 0.00 | 0.00 | 0.00 | 71 | 1005.2 |
| 20260905215202 | 87 | 106 | 6.0 | 11.0 | 0.00 | 0.00 | 0.00 | 71 | 1005.2 |
| 20260905215103 | 87 | 148 | 6.0 | 11.0 | 0.00 | 0.00 | 0.00 | 72 | 1005.1 |
| 20260905215002 | 87 | 131 | 6.0 | 11.0 | 0.00 | 0.00 | 0.00 | 72 | 1005.1 |
| 20260905214904 | 87 | 104 | 6.0 | 11.0 | 0.00 | 0.00 | 0.00 | 72 | 1005.2 |
| 20260905214804 | 87 | 110 | 7.0 | 11.0 | 0.00 | 0.00 | 0.00 | 72 | 1005.2 |
| 20260905214702 | 86 | 93 | 7.0 | 11.0 | 0.00 | 0.00 | 0.00 | 72 | 1005.2 |
| 20260905214603 | 86 | 111 | 8.0 | 11.0 | 0.00 | 0.00 | 0.00 | 71 | 1005.2 |
| 20260905214504 | 86 | 120 | 8.0 | 11.0 | 0.00 | 0.00 | 0.00 | 72 | 1005.2 |
| 20260905214404 | 86 | 125 | 6.0 | 9.0 | 0.00 | 0.00 | 0.00 | 72 | 1005.3 |
| 20260905214301 | 86 | 106 | 5.0 | 7.0 | 0.00 | 0.00 | 0.00 | 72 | 1005.2 |
| 20260905214203 | 86 | 113 | 4.0 | 7.0 | 0.00 | 0.00 | 0.00 | 72 | 1005.2 |
| 20260905214104 | 86 | 166 | 4.0 | 7.0 | 0.00 | 0.00 | 0.00 | 72 | 1005.2 |
| 20260905214002 | 86 | 147 | 3.0 | 7.0 | 0.00 | 0.00 | 0.00 | 72 | 1005.2 |
| 20260905213902 | 86 | 118 | 3.0 | 7.0 | 0.00 | 0.00 | 0.00 | 72 | 1005.2 |
| 20260905213803 | 86 | 148 | 2.0 | 13.0 | 0.00 | 0.00 | 0.00 | 72 | 1005.2 |
| 20260905213704 | 85 | 169 | 4.0 | 13.0 | 0.00 | 0.00 | 0.00 | 72 | 1005.2 |
| 20260905213603 | 85 | 147 | 3.0 | 13.0 | 0.00 | 0.00 | 0.00 | 72 | 1005.2 |
| 20260905213505 | 85 | 144 | 3.0 | 13.0 | 0.00 | 0.00 | 0.00 | 73 | 1005.3 |
| 20260905213404 | 85 | 140 | 5.0 | 13.0 | 0.00 | 0.00 | 0.00 | 73 | 1005.2 |
| 20260905213302 | 85 | 130 | 4.0 | 13.0 | 0.00 | 0.00 | 0.00 | 73 | 1005.3 |
| 20260905213203 | 85 | 134 | 4.0 | 13.0 | 0.00 | 0.00 | 0.00 | 72 | 1005.3 |
| 20260905213104 | 85 | 128 | 4.0 | 13.0 | 0.00 | 0.00 | 0.00 | 72 | 1005.4 |
| 20260905213001 | 85 | 123 | 7.0 | 13.0 | 0.00 | 0.00 | 0.00 | 72 | 1005.4 |
| 20260905212903 | 85 | 118 | 8.0 | 13.0 | 0.00 | 0.00 | 0.00 | 71 | 1005.5 |
| 20260905212804 | 85 | 131 | 9.0 | 13.0 | 0.00 | 0.00 | 0.00 | 71 | 1005.5 |
| 20260905212639 | 85 | 137 | 9.0 | 13.0 | 0.00 | 0.00 | 0.00 | 71 | 1005.5 |
| 20260905212532 | 86 | 121 | 8.0 | 11.0 | 0.00 | 0.00 | 0.00 | 73 | 1005.4 |
| 20260905212434 | 86 | 125 | 7.0 | 11.0 | 0.00 | 0.00 | 0.00 | 73 | 1005.5 |
| 20260905212332 | 86 | 104 | 8.0 | 11.0 | 0.00 | 0.00 | 0.00 | 73 | 1005.4 |
| 20260905212223 | 86 | 111 | 7.0 | 11.0 | 0.00 | 0.00 | 0.00 | 73 | 1005.4 |
| 20260905212117 | 86 | 96 | 5.0 | 11.0 | 0.00 | 0.00 | 0.00 | 73 | 1005.4 |
| 20260905212017 | 86 | 130 | 5.0 | 11.0 | 0.00 | 0.00 | 0.00 | 73 | 1005.5 |
| 20260905211915 | 85 | 113 | 5.0 | 11.0 | 0.00 | 0.00 | 0.00 | 73 | 1005.6 |
| 20260905211815 | 85 | 130 | 6.0 | 11.0 | 0.00 | 0.00 | 0.00 | 73 | 1005.8 |
| 20260905211715 | 86 | 145 | 6.0 | 13.0 | 0.00 | 0.00 | 0.00 | 73 | 1005.7 |
| 20260905211617 | 86 | 137 | 6.0 | 13.0 | 0.00 | 0.00 | 0.00 | 73 | 1005.8 |
| 20260905211517 | 86 | 111 | 7.0 | 15.0 | 0.00 | 0.00 | 0.00 | 71 | 1005.7 |
| 20260905211417 | 86 | 106 | 8.0 | 19.0 | 0.00 | 0.00 | 0.00 | 71 | 1005.7 |
| 20260905211317 | 86 | 111 | 7.0 | 19.0 | 0.00 | 0.00 | 0.00 | 71 | 1005.7 |
| 20260905211216 | 86 | 162 | 8.0 | 19.0 | 0.00 | 0.00 | 0.00 | 71 | 1005.7 |
| 20260905211116 | 87 | 109 | 9.0 | 19.0 | 0.00 | 0.00 | 0.00 | 71 | 1005.8 |
| 20260905211016 | 87 | 106 | 7.0 | 19.0 | 0.00 | 0.00 | 0.00 | 71 | 1005.8 |
| 20260905210916 | 87 | 99 | 8.0 | 19.0 | 0.00 | 0.00 | 0.00 | 71 | 1005.9 |
| 20260905210815 | 88 | 109 | 10.0 | 19.0 | 0.00 | 0.00 | 0.00 | 70 | 1005.9 |
| 20260905210715 | 88 | 89 | 11.0 | 19.0 | 0.00 | 0.00 | 0.00 | 69 | 1005.9 |
| 20260905210617 | 89 | 106 | 14.0 | 19.0 | 0.00 | 0.00 | 0.00 | 69 | 1005.9 |
| 20260905210516 | 89 | 97 | 13.0 | 19.0 | 0.00 | 0.00 | 0.00 | 70 | 1005.9 |
| 20260905210417 | 90 | 104 | 12.0 | 16.0 | 0.00 | 0.00 | 0.00 | 69 | 1005.8 |
| 20260905210316 | 90 | 79 | 11.0 | 14.0 | 0.00 | 0.00 | 0.00 | 69 | 1005.8 |
| 20260905210209 | 90 | 121 | 10.0 | 14.0 | 0.00 | 0.00 | 0.00 | 68 | 1005.7 |
| 20260905210104 | 90 | 110 | 9.0 | 13.0 | 0.00 | 0.00 | 0.00 | 68 | 1005.8 |
| 20260905210003 | 90 | 111 | 9.0 | 13.0 | 0.00 | 0.00 | 0.00 | 68 | 1005.7 |
| 20260905205904 | 90 | 114 | 8.0 | 13.0 | 0.00 | 0.00 | 0.00 | 68 | 1005.5 |
| 20260905205805 | 90 | 120 | 7.0 | 10.0 | 0.00 | 0.00 | 0.00 | 68 | 1005.5 |
| 20260905205703 | 90 | 114 | 7.0 | 10.0 | 0.00 | 0.00 | 0.00 | 67 | 1005.4 |
| 20260905205604 | 90 | 110 | 5.0 | 10.0 | 0.00 | 0.00 | 0.00 | 67 | 1005.4 |
| 20260905205504 | 90 | 125 | 5.0 | 9.0 | 0.00 | 0.00 | 0.00 | 67 | 1005.4 |
| 20260905205402 | 90 | 117 | 7.0 | 9.0 | 0.00 | 0.00 | 0.00 | 66 | 1005.3 |
| 20260905205306 | 90 | 111 | 5.0 | 7.0 | 0.00 | 0.00 | 0.00 | 66 | 1005.3 |
| 20260905205203 | 90 | 111 | 5.0 | 7.0 | 0.00 | 0.00 | 0.00 | 66 | 1005.3 |
| 20260905205103 | 90 | 111 | 5.0 | 7.0 | 0.00 | 0.00 | 0.00 | 66 | 1005.3 |
| 20260905205003 | 90 | 118 | 4.0 | 7.0 | 0.00 | 0.00 | 0.00 | 66 | 1005.3 |
| 20260905204903 | 91 | 111 | 4.0 | 7.0 | 0.00 | 0.00 | 0.00 | 67 | 1005.3 |
| 20260905204804 | 91 | 123 | 4.0 | 7.0 | 0.00 | 0.00 | 0.00 | 66 | 1005.3 |
| 20260905204704 | 91 | 182 | 4.0 | 7.0 | 0.00 | 0.00 | 0.00 | 66 | 1005.3 |
| 20260905204604 | 91 | 164 | 4.0 | 7.0 | 0.00 | 0.00 | 0.00 | 66 | 1005.4 |
| 20260905204505 | 91 | 162 | 4.0 | 7.0 | 0.00 | 0.00 | 0.00 | 67 | 1005.3 |
| 20260905204403 | 91 | 138 | 3.0 | 7.0 | 0.00 | 0.00 | 0.00 | 68 | 1005.3 |
| 20260905204303 | 91 | 165 | 2.0 | 7.0 | 0.00 | 0.00 | 0.00 | 67 | 1005.4 |
| 20260905204204 | 91 | 158 | 2.0 | 7.0 | 0.00 | 0.00 | 0.00 | 67 | 1005.3 |
| 20260905204103 | 91 | 134 | 3.0 | 7.0 | 0.00 | 0.00 | 0.00 | 67 | 1005.4 |
| 20260905204003 | 91 | 172 | 3.0 | 7.0 | 0.00 | 0.00 | 0.00 | 66 | 1005.3 |
| 20260905203902 | 91 | 134 | 3.0 | 7.0 | 0.00 | 0.00 | 0.00 | 66 | 1005.3 |
| 20260905203804 | 91 | 155 | 4.0 | 7.0 | 0.00 | 0.00 | 0.00 | 65 | 1005.4 |
| 20260905203705 | 91 | 169 | 4.0 | 7.0 | 0.00 | 0.00 | 0.00 | 65 | 1005.3 |
| 20260905203604 | 91 | 169 | 5.0 | 7.0 | 0.00 | 0.00 | 0.00 | 64 | 1005.3 |
| 20260905203503 | 92 | 135 | 4.0 | 6.0 | 0.00 | 0.00 | 0.00 | 64 | 1005.4 |
| 20260905203402 | 92 | 147 | 3.0 | 5.0 | 0.00 | 0.00 | 0.00 | 64 | 1005.4 |
| 20260905203304 | 92 | 164 | 3.0 | 5.0 | 0.00 | 0.00 | 0.00 | 62 | 1005.5 |
| 20260905203202 | 92 | 140 | 3.0 | 5.0 | 0.00 | 0.00 | 0.00 | 62 | 1005.5 |
| 20260905203103 | 93 | 161 | 2.0 | 4.0 | 0.00 | 0.00 | 0.00 | 62 | 1005.4 |
| 20260905203002 | 93 | 145 | 1.0 | 3.0 | 0.00 | 0.00 | 0.00 | 61 | 1005.5 |
| 20260905202902 | 93 | 93 | 0.0 | 3.0 | 0.00 | 0.00 | 0.00 | 61 | 1005.4 |
| 20260905202803 | 92 | 83 | 0.0 | 3.0 | 0.00 | 0.00 | 0.00 | 61 | 1005.4 |
| 20260905202703 | 92 | 83 | 0.0 | 3.0 | 0.00 | 0.00 | 0.00 | 61 | 1005.4 |
| 20260905202603 | 92 | 82 | 0.0 | 3.0 | 0.00 | 0.00 | 0.00 | 65 | 1005.3 |
| 20260905202504 | 91 | 80 | 0.0 | 4.0 | 0.00 | 0.00 | 0.00 | 65 | 1005.3 |
| 20260905202403 | 91 | 72 | 2.0 | 4.0 | 0.00 | 0.00 | 0.00 | 65 | 1005.3 |
| 20260905202306 | 91 | 72 | 2.0 | 4.0 | 0.00 | 0.00 | 0.00 | 65 | 1005.3 |
| 20260905202203 | 91 | 72 | 2.0 | 4.0 | 0.00 | 0.00 | 0.00 | 65 | 1005.4 |
| 20260905202104 | 91 | 72 | 2.0 | 4.0 | 0.00 | 0.00 | 0.00 | 65 | 1005.4 |
| 20260905202003 | 91 | 72 | 2.0 | 4.0 | 0.00 | 0.00 | 0.00 | 65 | 1005.4 |
| 20260905201903 | 91 | 68 | 2.0 | 4.0 | 0.00 | 0.00 | 0.00 | 64 | 1005.4 |
| 20260905201803 | 91 | 69 | 2.0 | 4.0 | 0.00 | 0.00 | 0.00 | 64 | 1005.5 |
| 20260905201704 | 91 | 69 | 2.0 | 4.0 | 0.00 | 0.00 | 0.00 | 64 | 1005.4 |
| 20260905201604 | 91 | 69 | 3.0 | 4.0 | 0.00 | 0.00 | 0.00 | 64 | 1005.5 |
| 20260905201504 | 91 | 73 | 3.0 | 4.0 | 0.00 | 0.00 | 0.00 | 64 | 1005.5 |
| 20260905201403 | 92 | 66 | 2.0 | 4.0 | 0.00 | 0.00 | 0.00 | 67 | 1005.6 |
| 20260905201304 | 92 | 83 | 0.0 | 1.0 | 0.00 | 0.00 | 0.00 | 67 | 1005.6 |
| 20260905201204 | 92 | 82 | 0.0 | 1.0 | 0.00 | 0.00 | 0.00 | 67 | 1005.5 |
| 20260905201103 | 92 | 113 | 0.0 | 1.0 | 0.00 | 0.00 | 0.00 | 62 | 1005.6 |
| 20260905201005 | 92 | 117 | 0.0 | 0.0 | 0.00 | 0.00 | 0.00 | 61 | 1005.6 |
| 20260905200904 | 92 | 118 | 0.0 | 0.0 | 0.00 | 0.00 | 0.00 | 61 | 1005.7 |
| 20260905200802 | 92 | 121 | 0.0 | 0.0 | 0.00 | 0.00 | 0.00 | 61 | 1005.6 |
| 20260905200704 | 0 | 0.0 | 0.0 | 0.00 | 0.00 | 0.00 | 1005.6 | ||
| 20260905200604 | 93 | 92 | 0.0 | 0.0 | 0.00 | 0.00 | 0.00 | 60 | 1005.8 |
| 20260905200504 | 93 | 92 | 0.0 | 0.0 | 0.00 | 0.00 | 0.00 | 60 | 1005.7 |
| 20260905200403 | 93 | 92 | 0.0 | 0.0 | 0.00 | 0.00 | 0.00 | 60 | 1005.7 |
| 20260905200303 | 93 | 92 | 0.0 | 0.0 | 0.00 | 0.00 | 0.00 | 60 | 1005.7 |
| 20260905200203 | 93 | 92 | 0.0 | 0.0 | 0.00 | 0.00 | 0.00 | 60 | 1005.7 |
| 20260905200104 | 93 | 92 | 0.0 | 1.0 | 0.00 | 0.00 | 0.00 | 60 | 1005.6 |
| 20260905200005 | 93 | 92 | 0.0 | 1.0 | 0.00 | 0.00 | 0.00 | 60 | 1005.7 |
| 20260905195903 | 93 | 92 | 0.0 | 3.0 | 0.00 | 0.00 | 0.00 | 60 | 1005.7 |
| 20260905195803 | 93 | 92 | 0.0 | 4.0 | 0.00 | 0.00 | 0.00 | 60 | 1005.7 |
| 20260905195703 | 93 | 92 | 0.0 | 4.0 | 0.00 | 0.00 | 0.00 | 60 | 1005.7 |
| 20260905195604 | 93 | 92 | 0.0 | 4.0 | 0.00 | 0.00 | 0.00 | 60 | 1005.7 |
| 20260905195503 | 93 | 92 | 0.0 | 4.0 | 0.00 | 0.00 | 0.00 | 60 | 1005.8 |
| 20260905195404 | 93 | 92 | 0.0 | 4.0 | 0.00 | 0.00 | 0.00 | 60 | 1005.8 |
| 20260905195306 | 93 | 92 | 1.0 | 4.0 | 0.00 | 0.00 | 0.00 | 60 | 1005.9 |
| 20260905195204 | 93 | 92 | 1.0 | 4.0 | 0.00 | 0.00 | 0.00 | 60 | 1005.9 |
| 20260905195102 | 93 | 92 | 2.0 | 4.0 | 0.00 | 0.00 | 0.00 | 60 | 1005.9 |
| 20260905195004 | 93 | 92 | 2.0 | 4.0 | 0.00 | 0.00 | 0.00 | 60 | 1005.9 |
| 20260905194903 | 93 | 92 | 1.0 | 4.0 | 0.00 | 0.00 | 0.00 | 59 | 1005.9 |
| 20260905194803 | 93 | 83 | 0.0 | 0.0 | 0.00 | 0.00 | 0.00 | 59 | 1006.0 |
| 20260905194703 | 93 | 83 | 0.0 | 0.0 | 0.00 | 0.00 | 0.00 | 59 | 1005.9 |
| 20260905194602 | 93 | 83 | 0.0 | 0.0 | 0.00 | 0.00 | 0.00 | 59 | 1006.0 |
| 20260905194503 | 93 | 83 | 0.0 | 0.0 | 0.00 | 0.00 | 0.00 | 59 | 1005.9 |
| 20260905194402 | 93 | 79 | 0.0 | 0.0 | 0.00 | 0.00 | 0.00 | 59 | 1005.9 |
| 20260905194302 | 93 | 79 | 0.0 | 0.0 | 0.00 | 0.00 | 0.00 | 59 | 1005.9 |
| 20260905194203 | 93 | 66 | 0.0 | 0.0 | 0.00 | 0.00 | 0.00 | 59 | 1005.9 |
| 20260905194103 | 93 | 61 | 0.0 | 0.0 | 0.00 | 0.00 | 0.00 | 59 | 1005.9 |
| 20260905194003 | 93 | 10 | 0.0 | 0.0 | 0.00 | 0.00 | 0.00 | 59 | 1005.9 |
| 20260905193903 | 93 | 10 | 0.0 | 0.0 | 0.00 | 0.00 | 0.00 | 58 | 1006.0 |
| 20260905193804 | 93 | 10 | 0.0 | 0.0 | 0.00 | 0.00 | 0.00 | 58 | 1006.0 |
| 20260905193705 | 93 | 10 | 0.0 | 0.0 | 0.00 | 0.00 | 0.00 | 58 | 1006.0 |
| 20260905193602 | 93 | 10 | 0.0 | 0.0 | 0.00 | 0.00 | 0.00 | 58 | 1006.0 |
| 20260905193504 | 94 | 293 | 0.0 | 0.0 | 0.00 | 0.00 | 0.00 | 59 | 1006.0 |
| 20260905193403 | 94 | 293 | 0.0 | 0.0 | 0.00 | 0.00 | 0.00 | 59 | 1006.1 |
| 20260905193303 | 93 | 293 | 0.0 | 0.0 | 0.00 | 0.00 | 0.00 | 59 | 1006.0 |
| 20260905193204 | 93 | 293 | 0.0 | 0.0 | 0.00 | 0.00 | 0.00 | 59 | 1006.0 |
| 20260905193103 | 93 | 293 | 0.0 | 0.0 | 0.00 | 0.00 | 0.00 | 59 | 1006.0 |
| 20260905193003 | 93 | 293 | 0.0 | 0.0 | 0.00 | 0.00 | 0.00 | 60 | 1006.1 |
| 20260905192903 | 93 | 281 | 0.0 | 0.0 | 0.00 | 0.00 | 0.00 | 61 | 1006.1 |
| 20260905192803 | 93 | 281 | 0.0 | 0.0 | 0.00 | 0.00 | 0.00 | 61 | 1006.1 |
| 20260905192703 | 93 | 254 | 0.0 | 0.0 | 0.00 | 0.00 | 0.00 | 61 | 1006.1 |
| 20260905192603 | 93 | 157 | 0.0 | 0.0 | 0.00 | 0.00 | 0.00 | 60 | 1006.1 |
| 20260905192504 | 93 | 155 | 0.0 | 0.0 | 0.00 | 0.00 | 0.00 | 60 | 1006.0 |
| 20260905192403 | 93 | 155 | 0.0 | 0.0 | 0.00 | 0.01 | 0.00 | 60 | 1006.1 |
| 20260905192306 | 93 | 155 | 0.0 | 0.0 | 0.00 | 0.01 | 0.00 | 60 | 1006.1 |
| 20260905192203 | 93 | 155 | 0.0 | 1.0 | 0.00 | 0.01 | 0.00 | 61 | 1006.2 |
| 20260905192104 | 93 | 155 | 0.0 | 2.0 | 0.00 | 0.01 | 0.00 | 61 | 1006.2 |
| 20260905192005 | 93 | 155 | 0.0 | 2.0 | 0.00 | 0.01 | 0.00 | 61 | 1006.2 |
| 20260905191902 | 93 | 155 | 0.0 | 2.0 | 0.00 | 0.01 | 0.00 | 61 | 1006.2 |
| 20260905191803 | 93 | 152 | 0.0 | 3.0 | 0.00 | 0.01 | 0.00 | 61 | 1006.3 |
| 20260905191704 | 92 | 151 | 0.0 | 3.0 | 0.00 | 0.01 | 0.00 | 61 | 1006.3 |
| 20260905191602 | 92 | 151 | 0.0 | 3.0 | 0.00 | 0.01 | 0.00 | 61 | 1006.2 |
| 20260905191503 | 92 | 7 | 0.0 | 3.0 | 0.00 | 0.01 | 0.00 | 61 | 1006.2 |
| 20260905191403 | 92 | 1 | 0.0 | 3.0 | 0.00 | 0.01 | 0.00 | 61 | 1006.2 |
| 20260905191302 | 92 | 1 | 1.0 | 4.0 | 0.00 | 0.01 | 0.00 | 61 | 1006.3 |
| 20260905191204 | 92 | 1 | 1.0 | 4.0 | 0.00 | 0.01 | 0.00 | 61 | 1006.3 |
| 20260905191104 | 92 | 1 | 2.0 | 4.0 | 0.00 | 0.01 | 0.00 | 61 | 1006.2 |
| 20260905191005 | 92 | 1 | 2.0 | 4.0 | 0.00 | 0.01 | 0.00 | 61 | 1006.3 |
| 20260905190903 | 92 | 1 | 1.0 | 4.0 | 0.00 | 0.01 | 0.00 | 62 | 1006.3 |
| 20260905190803 | 92 | 1 | 0.0 | 4.0 | 0.00 | 0.01 | 0.00 | 63 | 1006.3 |
| 20260905190703 | 92 | 1 | 1.0 | 4.0 | 0.00 | 0.01 | 0.00 | 63 | 1006.3 |
| 20260905190539 | 92 | 1 | 1.0 | 4.0 | 0.00 | 0.01 | 0.00 | 62 | 1006.3 |
| 20260905190436 | 92 | 1 | 2.0 | 4.0 | 0.00 | 0.01 | 0.00 | 62 | 1006.3 |
| 20260905190332 | 92 | 0 | 2.0 | 4.0 | 0.00 | 0.01 | 0.00 | 61 | 1006.4 |
| 20260905190232 | 92 | 0 | 2.0 | 3.0 | 0.00 | 0.01 | 0.00 | 61 | 1006.4 |
| 20260905190132 | 92 | 0 | 2.0 | 3.0 | 0.00 | 0.01 | 0.00 | 63 | 1006.4 |
| 20260905190012 | 92 | 34 | 2.0 | 2.0 | 0.00 | 0.01 | 0.00 | 63 | 1006.4 |
| 20260905185911 | 92 | 34 | 1.0 | 2.0 | 0.00 | 0.01 | 0.00 | 63 | 1006.5 |
| 20260905185810 | 93 | 37 | 0.0 | 0.0 | 0.00 | 0.01 | 0.00 | 63 | 1006.5 |
| 20260905185710 | 0 | 0.0 | 0.0 | 0.00 | 0.01 | 0.00 | 1006.5 | ||
| 20260905185610 | 0 | 0.0 | 0.0 | 0.00 | 0.01 | 0.00 | 1006.5 | ||
| 20260905185510 | 0 | 0.0 | 0.0 | 0.00 | 0.01 | 0.00 | 1006.5 | ||
| 20260905185410 | 0 | 0.0 | 0.0 | 0.00 | 0.01 | 0.00 | 1006.4 | ||
| 20260905185310 | 0 | 0.0 | 0.0 | 0.00 | 0.01 | 0.00 | 1006.4 | ||
| 20260905185210 | 92 | 38 | 4.0 | 3.0 | 0.00 | 0.01 | 0.00 | 63 | 1006.4 |
| 20260905185109 | 92 | 38 | 4.0 | 5.0 | 0.00 | 0.01 | 0.00 | 63 | 1006.4 |
| 20260905185008 | 92 | 38 | 4.0 | 5.0 | 0.00 | 0.01 | 0.00 | 63 | 1006.5 |
| 20260905184909 | 92 | 38 | 4.0 | 5.0 | 0.00 | 0.01 | 0.00 | 63 | 1006.5 |
| 20260905184806 | 92 | 38 | 4.0 | 6.0 | 0.00 | 0.01 | 0.00 | 63 | 1006.5 |
| 20260905184706 | 92 | 38 | 4.0 | 7.0 | 0.00 | 0.01 | 0.00 | 63 | 1006.5 |
| 20260905184605 | 92 | 38 | 4.0 | 7.0 | 0.00 | 0.01 | 0.00 | 63 | 1006.5 |
| 20260905184506 | 92 | 38 | 4.0 | 7.0 | 0.00 | 0.01 | 0.00 | 63 | 1006.5 |
| 20260905184405 | 92 | 38 | 4.0 | 7.0 | 0.00 | 0.01 | 0.00 | 63 | 1006.6 |
| 20260905184305 | 92 | 38 | 4.0 | 7.0 | 0.00 | 0.01 | 0.00 | 63 | 1006.6 |
| 20260905184205 | 92 | 32 | 5.0 | 7.0 | 0.00 | 0.01 | 0.00 | 62 | 1006.6 |
| 20260905184105 | 92 | 0 | 5.0 | 7.0 | 0.00 | 0.01 | 0.00 | 62 | 1006.6 |
| 20260905184005 | 92 | 1 | 5.0 | 7.0 | 0.00 | 0.01 | 0.00 | 62 | 1006.6 |
| 20260905183908 | 92 | 0 | 5.0 | 7.0 | 0.00 | 0.01 | 0.00 | 62 | 1006.7 |
| 20260905183805 | 93 | 10 | 6.0 | 7.0 | 0.00 | 0.01 | 0.00 | 62 | 1006.6 |
| 20260905183707 | 93 | 8 | 6.0 | 7.0 | 0.00 | 0.01 | 0.00 | 62 | 1006.7 |
| 20260905183605 | 93 | 337 | 5.0 | 9.0 | 0.00 | 0.01 | 0.00 | 63 | 1006.7 |
| 20260905183508 | 93 | 314 | 5.0 | 9.0 | 0.00 | 0.01 | 0.00 | 63 | 1006.7 |
| 20260905183405 | 93 | 326 | 3.0 | 9.0 | 0.00 | 0.01 | 0.00 | 63 | 1006.7 |
| 20260905183306 | 93 | 345 | 2.0 | 9.0 | 0.00 | 0.01 | 0.00 | 63 | 1006.7 |
| 20260905183207 | 93 | 38 | 2.0 | 9.0 | 0.00 | 0.01 | 0.00 | 63 | 1006.8 |
| 20260905183105 | 93 | 0 | 4.0 | 9.0 | 0.00 | 0.01 | 0.00 | 62 | 1006.7 |
| 20260905183006 | 93 | 0 | 4.0 | 9.0 | 0.00 | 0.01 | 0.00 | 63 | 1006.7 |
| 20260905182906 | 93 | 347 | 3.0 | 9.0 | 0.00 | 0.01 | 0.00 | 62 | 1006.7 |
| 20260905182805 | 93 | 47 | 6.0 | 9.0 | 0.00 | 0.01 | 0.00 | 62 | 1006.7 |
| 20260905182705 | 93 | 320 | 6.0 | 9.0 | 0.00 | 0.01 | 0.00 | 63 | 1006.7 |
| 20260905182607 | 93 | 290 | 5.0 | 7.0 | 0.00 | 0.01 | 0.00 | 64 | 1006.7 |
| 20260905182505 | 93 | 268 | 4.0 | 6.0 | 0.00 | 0.01 | 0.00 | 64 | 1006.7 |
| 20260905182405 | 93 | 285 | 4.0 | 6.0 | 0.00 | 0.01 | 0.00 | 64 | 1006.7 |
| 20260905182307 | 93 | 258 | 4.0 | 6.0 | 0.00 | 0.01 | 0.00 | 64 | 1006.8 |
| 20260905182205 | 93 | 285 | 2.0 | 6.0 | 0.00 | 0.01 | 0.00 | 61 | 1006.8 |
| 20260905182104 | 93 | 282 | 2.0 | 6.0 | 0.00 | 0.01 | 0.00 | 63 | 1006.8 |
| 20260905182005 | 93 | 282 | 4.0 | 6.0 | 0.00 | 0.01 | 0.00 | 63 | 1006.9 |
| 20260905181904 | 93 | 283 | 4.0 | 6.0 | 0.00 | 0.01 | 0.00 | 63 | 1006.9 |
| 20260905181807 | 93 | 279 | 2.0 | 6.0 | 0.00 | 0.01 | 0.00 | 62 | 1007.0 |
| 20260905181706 | 93 | 323 | 2.0 | 6.0 | 0.00 | 0.01 | 0.00 | 62 | 1007.0 |
| 20260905181605 | 93 | 65 | 2.0 | 6.0 | 0.00 | 0.01 | 0.00 | 62 | 1007.0 |